Time,TemperatureF,DewpointF,PressureIn,WindDirection,WindDirectionDegrees,WindSpeedMPH,WindSpeedGustMPH,Humidity,HourlyPrecipIn,Conditions,Clouds,dailyrainin,SoftwareType,DateUTC
2013-05-28 00:00:00,56.6,46.9,30.20,NW,311,0.0,2.0,70,0.00,,---,0.00,VWS V14.01,2013-05-28 04:00:00,
2013-05-28 00:01:00,56.6,46.9,30.20,NW,311,0.0,2.0,70,0.00,,---,0.00,VWS V14.01,2013-05-28 04:01:00,
2013-05-28 00:06:00,56.4,47.1,30.20,NW,311,0.0,0.0,71,0.00,,---,0.00,VWS V14.01,2013-05-28 04:06:00,
2013-05-28 00:07:00,56.3,47.0,30.20,NW,311,0.0,0.0,71,0.00,,---,0.00,VWS V14.01,2013-05-28 04:07:00,
2013-05-28 00:11:00,56.1,47.2,30.20,NW,311,0.0,0.0,72,0.00,,---,0.00,VWS V14.01,2013-05-28 04:11:00,
2013-05-28 00:12:00,56.1,47.2,30.20,NW,311,0.0,0.0,72,0.00,,---,0.00,VWS V14.01,2013-05-28 04:12:00,
2013-05-28 00:16:00,56.0,47.5,30.20,NW,311,0.0,0.0,73,0.00,,---,0.00,VWS V14.01,2013-05-28 04:16:00,
2013-05-28 00:17:00,56.0,47.5,30.20,NW,311,0.0,0.0,73,0.00,,---,0.00,VWS V14.01,2013-05-28 04:17:00,
2013-05-28 00:18:00,56.0,47.5,30.20,NW,311,0.0,0.0,73,0.00,,---,0.00,VWS V14.01,2013-05-28 04:18:00,
2013-05-28 00:21:00,55.9,47.7,30.20,NW,311,0.0,0.0,74,0.00,,---,0.00,VWS V14.01,2013-05-28 04:21:00,
2013-05-28 00:22:00,55.9,47.4,30.20,NW,311,0.0,0.0,73,0.00,,---,0.00,VWS V14.01,2013-05-28 04:22:00,
2013-05-28 00:23:00,55.9,47.7,30.20,NW,311,0.0,0.0,74,0.00,,---,0.00,VWS V14.01,2013-05-28 04:23:00,
2013-05-28 00:26:00,55.9,47.7,30.20,NW,311,0.0,0.0,74,0.00,,---,0.00,VWS V14.01,2013-05-28 04:26:00,
2013-05-28 00:28:00,55.9,48.1,30.20,NW,311,0.0,0.0,75,0.00,,---,0.00,VWS V14.01,2013-05-28 04:28:00,
2013-05-28 00:29:00,55.9,47.7,30.20,NW,311,0.0,0.0,74,0.00,,---,0.00,VWS V14.01,2013-05-28 04:29:00,
2013-05-28 00:31:00,55.8,47.7,30.20,NW,311,0.0,0.0,74,0.00,,---,0.00,VWS V14.01,2013-05-28 04:31:00,
2013-05-28 00:33:00,55.8,47.7,30.20,NW,311,0.0,0.0,74,0.00,,---,0.00,VWS V14.01,2013-05-28 04:33:00,
2013-05-28 00:34:00,55.8,47.7,30.20,NW,311,0.0,0.0,74,0.00,,---,0.00,VWS V14.01,2013-05-28 04:34:00,
2013-05-28 00:37:00,55.9,47.7,30.20,NW,311,0.0,0.0,74,0.00,,---,0.00,VWS V14.01,2013-05-28 04:37:00,
2013-05-28 00:38:00,55.9,47.4,30.20,NW,311,0.0,0.0,73,0.00,,---,0.00,VWS V14.01,2013-05-28 04:38:00,
2013-05-28 00:39:00,55.9,47.7,30.20,NW,311,0.0,0.0,74,0.00,,---,0.00,VWS V14.01,2013-05-28 04:39:00,
2013-05-28 00:40:00,55.9,47.7,30.20,NW,311,0.0,0.0,74,0.00,,---,0.00,VWS V14.01,2013-05-28 04:40:00,
2013-05-28 00:43:00,55.9,47.7,30.19,NW,311,0.0,0.0,74,0.00,,---,0.00,VWS V14.01,2013-05-28 04:43:00,
2013-05-28 00:44:00,55.9,47.7,30.19,NW,311,0.0,0.0,74,0.00,,---,0.00,VWS V14.01,2013-05-28 04:44:00,
2013-05-28 00:45:00,55.9,47.7,30.19,NW,311,0.0,0.0,74,0.00,,---,0.00,VWS V14.01,2013-05-28 04:45:00,
2013-05-28 00:48:00,56.0,48.2,30.19,NW,311,0.0,0.0,75,0.00,,---,0.00,VWS V14.01,2013-05-28 04:48:00,
2013-05-28 00:49:00,56.0,48.2,30.19,NW,311,0.0,0.0,75,0.00,,---,0.00,VWS V14.01,2013-05-28 04:49:00,
2013-05-28 00:50:00,56.0,48.2,30.19,NW,311,0.0,0.0,75,0.00,,---,0.00,VWS V14.01,2013-05-28 04:50:00,
2013-05-28 00:54:00,56.0,48.2,30.18,NW,311,0.0,0.0,75,0.00,,---,0.00,VWS V14.01,2013-05-28 04:54:00,
2013-05-28 00:55:00,56.0,48.2,30.18,NW,311,0.0,0.0,75,0.00,,---,0.00,VWS V14.01,2013-05-28 04:55:00,
2013-05-28 00:56:00,56.0,48.2,30.17,NW,311,0.0,0.0,75,0.00,,---,0.00,VWS V14.01,2013-05-28 04:56:00,
2013-05-28 00:59:00,55.9,48.1,30.17,NW,311,0.0,0.0,75,0.00,,---,0.00,VWS V14.01,2013-05-28 04:59:00,
2013-05-28 01:00:00,55.9,48.1,30.18,NW,311,0.0,0.0,75,0.00,,---,0.00,VWS V14.01,2013-05-28 05:00:00,
2013-05-28 01:02:00,55.9,48.5,30.18,NW,311,0.0,0.0,76,0.00,,---,0.00,VWS V14.01,2013-05-28 05:02:00,
2013-05-28 01:04:00,55.9,48.1,30.18,NW,311,0.0,0.0,75,0.00,,---,0.00,VWS V14.01,2013-05-28 05:04:00,
2013-05-28 01:05:00,55.9,48.1,30.18,NW,311,0.0,0.0,75,0.00,,---,0.00,VWS V14.01,2013-05-28 05:05:00,
2013-05-28 01:06:00,55.9,48.1,30.18,NW,311,0.0,0.0,75,0.00,,---,0.00,VWS V14.01,2013-05-28 05:06:00,
2013-05-28 01:07:00,55.9,48.1,30.18,NW,311,0.0,0.0,75,0.00,,---,0.00,VWS V14.01,2013-05-28 05:07:00,
2013-05-28 01:10:00,55.9,48.1,30.18,NW,311,0.0,0.0,75,0.00,,---,0.00,VWS V14.01,2013-05-28 05:10:00,
2013-05-28 01:11:00,55.9,48.5,30.18,NW,311,0.0,0.0,76,0.00,,---,0.00,VWS V14.01,2013-05-28 05:11:00,
2013-05-28 01:12:00,55.9,48.1,30.18,NW,311,0.0,0.0,75,0.00,,---,0.00,VWS V14.01,2013-05-28 05:12:00,
2013-05-28 01:15:00,55.8,48.0,30.19,NW,311,0.0,0.0,75,0.00,,---,0.00,VWS V14.01,2013-05-28 05:15:00,
2013-05-28 01:16:00,55.8,48.0,30.19,NW,311,0.0,0.0,75,0.00,,---,0.00,VWS V14.01,2013-05-28 05:16:00,
2013-05-28 01:17:00,55.8,48.0,30.18,NW,311,0.0,0.0,75,0.00,,---,0.00,VWS V14.01,2013-05-28 05:17:00,
2013-05-28 01:18:00,55.8,48.0,30.18,NW,311,0.0,0.0,75,0.00,,---,0.00,VWS V14.01,2013-05-28 05:18:00,
2013-05-28 01:21:00,55.9,48.1,30.18,NW,311,0.0,1.0,75,0.00,,---,0.00,VWS V14.01,2013-05-28 05:21:00,
2013-05-28 01:22:00,55.9,47.7,30.18,NW,311,0.0,1.0,74,0.00,,---,0.00,VWS V14.01,2013-05-28 05:22:00,
2013-05-28 01:23:00,56.0,47.8,30.18,NW,311,0.0,1.0,74,0.00,,---,0.00,VWS V14.01,2013-05-28 05:23:00,
2013-05-28 01:26:00,56.2,48.0,30.18,NW,311,0.0,1.0,74,0.00,,---,0.00,VWS V14.01,2013-05-28 05:26:00,
2013-05-28 01:27:00,56.2,48.0,30.18,NW,311,0.0,1.0,74,0.00,,---,0.00,VWS V14.01,2013-05-28 05:27:00,
2013-05-28 01:28:00,56.2,48.0,30.17,NW,311,0.0,1.0,74,0.00,,---,0.00,VWS V14.01,2013-05-28 05:28:00,
2013-05-28 01:32:00,56.3,48.1,30.18,NW,311,0.0,1.0,74,0.00,,---,0.00,VWS V14.01,2013-05-28 05:32:00,
2013-05-28 01:33:00,56.3,48.8,30.18,NW,311,0.0,1.0,76,0.00,,---,0.00,VWS V14.01,2013-05-28 05:33:00,
2013-05-28 01:34:00,56.3,48.1,30.18,NW,311,0.0,1.0,74,0.00,,---,0.00,VWS V14.01,2013-05-28 05:34:00,
2013-05-28 01:37:00,56.1,47.9,30.19,NW,311,0.0,0.0,74,0.00,,---,0.00,VWS V14.01,2013-05-28 05:37:00,
2013-05-28 01:38:00,56.0,47.8,30.19,NW,311,0.0,0.0,74,0.00,,---,0.00,VWS V14.01,2013-05-28 05:38:00,
2013-05-28 01:39:00,56.0,47.5,30.19,NW,311,0.0,0.0,73,0.00,,---,0.00,VWS V14.01,2013-05-28 05:39:00,
2013-05-28 01:42:00,56.1,47.6,30.19,NW,311,0.0,0.0,73,0.00,,---,0.00,VWS V14.01,2013-05-28 05:42:00,
2013-05-28 01:43:00,56.2,47.7,30.19,NW,311,0.0,0.0,73,0.00,,---,0.00,VWS V14.01,2013-05-28 05:43:00,
2013-05-28 01:44:00,56.2,47.7,30.18,NW,311,0.0,0.0,73,0.00,,---,0.00,VWS V14.01,2013-05-28 05:44:00,
2013-05-28 01:47:00,56.4,47.9,30.18,NW,311,0.0,1.0,73,0.00,,---,0.00,VWS V14.01,2013-05-28 05:47:00,
2013-05-28 01:48:00,56.4,47.9,30.18,NW,311,0.0,1.0,73,0.00,,---,0.00,VWS V14.01,2013-05-28 05:48:00,
2013-05-28 01:49:00,56.4,47.9,30.18,NW,311,0.0,1.0,73,0.00,,---,0.00,VWS V14.01,2013-05-28 05:49:00,
2013-05-28 01:50:00,56.4,47.9,30.18,SW,224,0.0,1.0,73,0.00,,---,0.00,VWS V14.01,2013-05-28 05:50:00,
2013-05-28 01:52:00,56.5,47.6,30.17,SW,223,1.0,2.0,72,0.00,,---,0.00,VWS V14.01,2013-05-28 05:52:00,
2013-05-28 01:54:00,56.5,47.6,30.17,SW,224,0.0,2.0,72,0.00,,---,0.00,VWS V14.01,2013-05-28 05:54:00,
2013-05-28 01:55:00,56.4,47.5,30.17,SW,223,0.0,2.0,72,0.00,,---,0.00,VWS V14.01,2013-05-28 05:55:00,
2013-05-28 01:56:00,56.4,47.5,30.17,SW,224,0.0,2.0,72,0.00,,---,0.00,VWS V14.01,2013-05-28 05:56:00,
2013-05-28 01:58:00,56.4,47.9,30.17,SW,224,0.0,2.0,73,0.00,,---,0.00,VWS V14.01,2013-05-28 05:58:00,
2013-05-28 01:59:00,56.3,48.1,30.17,SW,223,0.0,2.0,74,0.00,,---,0.00,VWS V14.01,2013-05-28 05:59:00,
2013-05-28 02:00:00,56.3,48.1,30.18,SW,223,0.0,2.0,74,0.00,,---,0.00,VWS V14.01,2013-05-28 06:00:00,
2013-05-28 02:01:00,56.3,47.8,30.18,SW,224,0.0,2.0,73,0.00,,---,0.00,VWS V14.01,2013-05-28 06:01:00,
2013-05-28 02:03:00,56.3,47.8,30.18,SW,224,0.0,2.0,73,0.00,,---,0.00,VWS V14.01,2013-05-28 06:03:00,
2013-05-28 02:04:00,56.3,47.8,30.17,SW,224,0.0,2.0,73,0.00,,---,0.00,VWS V14.01,2013-05-28 06:04:00,
2013-05-28 02:05:00,56.3,47.8,30.17,SW,224,0.0,0.0,73,0.00,,---,0.00,VWS V14.01,2013-05-28 06:05:00,
2013-05-28 02:06:00,56.3,47.8,30.17,SW,224,0.0,0.0,73,0.00,,---,0.00,VWS V14.01,2013-05-28 06:06:00,
2013-05-28 02:08:00,56.3,47.8,30.17,SW,224,0.0,0.0,73,0.00,,---,0.00,VWS V14.01,2013-05-28 06:08:00,
2013-05-28 02:10:00,56.4,47.9,30.17,SW,224,0.0,0.0,73,0.00,,---,0.00,VWS V14.01,2013-05-28 06:10:00,
2013-05-28 02:11:00,56.3,47.8,30.17,SW,224,0.0,0.0,73,0.00,,---,0.00,VWS V14.01,2013-05-28 06:11:00,
2013-05-28 02:12:00,56.3,47.8,30.17,SW,223,0.0,0.0,73,0.00,,---,0.00,VWS V14.01,2013-05-28 06:12:00,
2013-05-28 02:13:00,56.3,47.8,30.17,SW,223,0.0,0.0,73,0.00,,---,0.00,VWS V14.01,2013-05-28 06:13:00,
2013-05-28 02:15:00,56.3,47.8,30.17,SW,224,0.0,0.0,73,0.00,,---,0.00,VWS V14.01,2013-05-28 06:15:00,
2013-05-28 02:16:00,56.3,47.8,30.17,SW,223,0.0,0.0,73,0.00,,---,0.00,VWS V14.01,2013-05-28 06:16:00,
2013-05-28 02:17:00,56.2,47.7,30.17,SW,224,0.0,0.0,73,0.00,,---,0.00,VWS V14.01,2013-05-28 06:17:00,
2013-05-28 02:19:00,56.2,48.0,30.17,SW,224,0.0,0.0,74,0.00,,---,0.00,VWS V14.01,2013-05-28 06:19:00,
2013-05-28 02:21:00,56.1,47.9,30.17,SW,223,0.0,0.0,74,0.00,,---,0.00,VWS V14.01,2013-05-28 06:21:00,
2013-05-28 02:22:00,56.1,47.9,30.17,SW,223,0.0,0.0,74,0.00,,---,0.00,VWS V14.01,2013-05-28 06:22:00,
2013-05-28 02:24:00,56.0,47.8,30.17,SW,223,0.0,0.0,74,0.00,,---,0.00,VWS V14.01,2013-05-28 06:24:00,
2013-05-28 02:26:00,56.0,48.2,30.17,SW,224,0.0,0.0,75,0.00,,---,0.00,VWS V14.01,2013-05-28 06:26:00,
2013-05-28 02:27:00,56.0,48.2,30.17,SW,224,0.0,0.0,75,0.00,,---,0.00,VWS V14.01,2013-05-28 06:27:00,
2013-05-28 02:28:00,56.0,47.8,30.17,SW,224,0.0,0.0,74,0.00,,---,0.00,VWS V14.01,2013-05-28 06:28:00,
2013-05-28 02:29:00,56.0,47.8,30.17,SW,223,0.0,0.0,74,0.00,,---,0.00,VWS V14.01,2013-05-28 06:29:00,
2013-05-28 02:32:00,56.0,47.8,30.16,SW,223,0.0,0.0,74,0.00,,---,0.00,VWS V14.01,2013-05-28 06:32:00,
2013-05-28 02:33:00,55.9,47.7,30.17,SW,224,0.0,0.0,74,0.00,,---,0.00,VWS V14.01,2013-05-28 06:33:00,
2013-05-28 02:35:00,55.9,48.1,30.16,SW,223,0.0,0.0,75,0.00,,---,0.00,VWS V14.01,2013-05-28 06:35:00,
2013-05-28 02:37:00,55.9,48.1,30.16,SW,224,0.0,0.0,75,0.00,,---,0.00,VWS V14.01,2013-05-28 06:37:00,
2013-05-28 02:38:00,55.8,48.4,30.16,SW,224,0.0,0.0,76,0.00,,---,0.00,VWS V14.01,2013-05-28 06:38:00,
2013-05-28 02:39:00,55.8,48.4,30.17,SW,224,0.0,0.0,76,0.00,,---,0.00,VWS V14.01,2013-05-28 06:39:00,
2013-05-28 02:40:00,55.7,48.3,30.16,SW,223,0.0,0.0,76,0.00,,---,0.00,VWS V14.01,2013-05-28 06:40:00,
2013-05-28 02:43:00,55.4,48.0,30.16,SW,224,0.0,0.0,76,0.00,,---,0.00,VWS V14.01,2013-05-28 06:43:00,
2013-05-28 02:44:00,55.4,48.7,30.17,SW,224,0.0,0.0,78,0.00,,---,0.00,VWS V14.01,2013-05-28 06:44:00,
2013-05-28 02:45:00,55.4,48.7,30.17,SW,224,0.0,0.0,78,0.00,,---,0.00,VWS V14.01,2013-05-28 06:45:00,
2013-05-28 02:46:00,55.3,48.6,30.17,SW,224,0.0,0.0,78,0.00,,---,0.00,VWS V14.01,2013-05-28 06:46:00,
2013-05-28 02:48:00,55.2,48.8,30.16,SW,224,0.0,0.0,79,0.00,,---,0.00,VWS V14.01,2013-05-28 06:48:00,
2013-05-28 02:50:00,55.1,48.4,30.16,SW,224,0.0,0.0,78,0.00,,---,0.00,VWS V14.01,2013-05-28 06:50:00,
2013-05-28 02:51:00,55.1,48.0,30.16,SW,224,0.0,0.0,77,0.00,,---,0.00,VWS V14.01,2013-05-28 06:51:00,
2013-05-28 02:54:00,55.2,47.8,30.16,SW,223,0.0,0.0,76,0.00,,---,0.00,VWS V14.01,2013-05-28 06:54:00,
2013-05-28 02:55:00,55.2,48.1,30.16,SW,224,0.0,0.0,77,0.00,,---,0.00,VWS V14.01,2013-05-28 06:55:00,
2013-05-28 02:56:00,55.3,48.2,30.17,SW,223,0.0,0.0,77,0.00,,---,0.00,VWS V14.01,2013-05-28 06:56:00,
2013-05-28 02:59:00,55.3,48.2,30.16,SW,224,0.0,0.0,77,0.00,,---,0.00,VWS V14.01,2013-05-28 06:59:00,
2013-05-28 03:00:00,55.3,47.9,30.16,SW,224,0.0,0.0,76,0.00,,---,0.00,VWS V14.01,2013-05-28 07:00:00,
2013-05-28 03:01:00,55.3,47.9,30.16,SW,224,0.0,0.0,76,0.00,,---,0.00,VWS V14.01,2013-05-28 07:01:00,
2013-05-28 03:02:00,55.3,47.9,30.16,SW,224,0.0,0.0,76,0.00,,---,0.00,VWS V14.01,2013-05-28 07:02:00,
2013-05-28 03:05:00,55.3,47.9,30.16,SW,223,0.0,0.0,76,0.00,,---,0.00,VWS V14.01,2013-05-28 07:05:00,
2013-05-28 03:06:00,55.3,47.9,30.16,SW,224,0.0,0.0,76,0.00,,---,0.00,VWS V14.01,2013-05-28 07:06:00,
2013-05-28 03:08:00,55.3,47.9,30.16,SSW,210,0.0,0.0,76,0.00,,---,0.00,VWS V14.01,2013-05-28 07:08:00,
2013-05-28 03:10:00,55.3,47.9,30.16,SSW,211,0.0,0.0,76,0.00,,---,0.00,VWS V14.01,2013-05-28 07:10:00,
2013-05-28 03:12:00,55.3,48.2,30.16,SSW,210,0.0,0.0,77,0.00,,---,0.00,VWS V14.01,2013-05-28 07:12:00,
2013-05-28 03:14:00,55.3,48.6,30.16,SSW,210,0.0,0.0,78,0.00,,---,0.00,VWS V14.01,2013-05-28 07:14:00,
2013-05-28 03:15:00,55.2,48.5,30.16,SSW,211,0.0,0.0,78,0.00,,---,0.00,VWS V14.01,2013-05-28 07:15:00,
2013-05-28 03:17:00,55.2,48.1,30.16,SSW,210,0.0,0.0,77,0.00,,---,0.00,VWS V14.01,2013-05-28 07:17:00,
2013-05-28 03:18:00,55.2,48.1,30.16,SSW,211,0.0,0.0,77,0.00,,---,0.00,VWS V14.01,2013-05-28 07:18:00,
2013-05-28 03:19:00,55.2,48.5,30.16,SSW,210,0.0,0.0,78,0.00,,---,0.00,VWS V14.01,2013-05-28 07:19:00,
2013-05-28 03:20:00,55.2,48.8,30.16,SSW,211,0.0,0.0,79,0.00,,---,0.00,VWS V14.01,2013-05-28 07:20:00,
2013-05-28 03:22:00,55.1,48.7,30.16,SSW,211,0.0,0.0,79,0.00,,---,0.00,VWS V14.01,2013-05-28 07:22:00,
2013-05-28 03:24:00,55.1,48.0,30.16,SSW,210,0.0,0.0,77,0.00,,---,0.00,VWS V14.01,2013-05-28 07:24:00,
2013-05-28 03:25:00,55.1,48.4,30.16,SSW,210,0.0,0.0,78,0.00,,---,0.00,VWS V14.01,2013-05-28 07:25:00,
2013-05-28 03:27:00,55.0,48.3,30.16,SSW,210,0.0,0.0,78,0.00,,---,0.00,VWS V14.01,2013-05-28 07:27:00,
2013-05-28 03:28:00,55.0,48.3,30.15,SSW,211,0.0,0.0,78,0.00,,---,0.00,VWS V14.01,2013-05-28 07:28:00,
2013-05-28 03:29:00,55.0,48.3,30.15,SSW,211,0.0,0.0,78,0.00,,---,0.00,VWS V14.01,2013-05-28 07:29:00,
2013-05-28 03:30:00,55.0,48.3,30.15,SSW,210,0.0,0.0,78,0.00,,---,0.00,VWS V14.01,2013-05-28 07:30:00,
2013-05-28 03:31:00,54.9,48.2,30.15,SSW,211,0.0,0.0,78,0.00,,---,0.00,VWS V14.01,2013-05-28 07:31:00,
2013-05-28 03:32:00,54.9,48.2,30.16,SSW,211,0.0,0.0,78,0.00,,---,0.00,VWS V14.01,2013-05-28 07:32:00,
2013-05-28 03:33:00,54.9,48.2,30.16,SSW,211,0.0,0.0,78,0.00,,---,0.00,VWS V14.01,2013-05-28 07:33:00,
2013-05-28 03:34:00,54.9,48.5,30.16,SSW,211,0.0,0.0,79,0.00,,---,0.00,VWS V14.01,2013-05-28 07:34:00,
2013-05-28 03:36:00,54.8,48.4,30.16,SSW,210,0.0,0.0,79,0.00,,---,0.00,VWS V14.01,2013-05-28 07:36:00,
2013-05-28 03:38:00,54.7,48.7,30.16,SSW,211,0.0,0.0,80,0.00,,---,0.00,VWS V14.01,2013-05-28 07:38:00,
2013-05-28 03:39:00,54.7,48.3,30.16,SSW,211,0.0,0.0,79,0.00,,---,0.00,VWS V14.01,2013-05-28 07:39:00,
2013-05-28 03:41:00,54.7,48.3,30.16,SSW,211,0.0,0.0,79,0.00,,---,0.00,VWS V14.01,2013-05-28 07:41:00,
2013-05-28 03:42:00,54.7,48.3,30.16,SSW,211,0.0,0.0,79,0.00,,---,0.00,VWS V14.01,2013-05-28 07:42:00,
2013-05-28 03:44:00,54.6,48.6,30.15,SSW,211,0.0,0.0,80,0.00,,---,0.00,VWS V14.01,2013-05-28 07:44:00,
2013-05-28 03:45:00,54.7,48.7,30.15,SSW,210,0.0,0.0,80,0.00,,---,0.00,VWS V14.01,2013-05-28 07:45:00,
2013-05-28 03:46:00,54.7,48.3,30.15,SSW,211,0.0,0.0,79,0.00,,---,0.00,VWS V14.01,2013-05-28 07:46:00,
2013-05-28 03:47:00,54.8,48.4,30.15,SSW,211,0.0,0.0,79,0.00,,---,0.00,VWS V14.01,2013-05-28 07:47:00,
2013-05-28 03:49:00,54.8,48.8,30.15,SSW,211,0.0,0.0,80,0.00,,---,0.00,VWS V14.01,2013-05-28 07:49:00,
2013-05-28 03:50:00,54.8,48.8,30.15,SSW,211,0.0,0.0,80,0.00,,---,0.00,VWS V14.01,2013-05-28 07:50:00,
2013-05-28 03:52:00,54.8,48.8,30.15,SSW,211,0.0,0.0,80,0.00,,---,0.00,VWS V14.01,2013-05-28 07:52:00,
2013-05-28 03:54:00,54.8,48.8,30.15,SSW,211,0.0,0.0,80,0.00,,---,0.00,VWS V14.01,2013-05-28 07:54:00,
2013-05-28 03:55:00,54.8,48.4,30.15,SSW,211,0.0,0.0,79,0.00,,---,0.00,VWS V14.01,2013-05-28 07:55:00,
2013-05-28 03:56:00,54.8,48.4,30.15,SSW,211,0.0,0.0,79,0.00,,---,0.00,VWS V14.01,2013-05-28 07:56:00,
2013-05-28 03:57:00,54.9,48.2,30.15,SSW,210,0.0,0.0,78,0.00,,---,0.00,VWS V14.01,2013-05-28 07:57:00,
2013-05-28 03:58:00,55.0,48.3,30.15,SSW,211,0.0,0.0,78,0.00,,---,0.00,VWS V14.01,2013-05-28 07:58:00,
2013-05-28 03:59:00,55.0,48.3,30.15,SSW,211,0.0,0.0,78,0.00,,---,0.00,VWS V14.01,2013-05-28 07:59:00,
2013-05-28 04:00:00,55.1,48.4,30.16,SSW,211,0.0,0.0,78,0.00,,---,0.00,VWS V14.01,2013-05-28 08:00:00,
2013-05-28 04:01:00,55.1,48.4,30.16,SSW,210,0.0,0.0,78,0.00,,---,0.00,VWS V14.01,2013-05-28 08:01:00,
2013-05-28 04:02:00,55.1,48.4,30.16,SSW,210,0.0,0.0,78,0.00,,---,0.00,VWS V14.01,2013-05-28 08:02:00,
2013-05-28 04:03:00,55.1,48.7,30.15,SSW,210,0.0,0.0,79,0.00,,---,0.00,VWS V14.01,2013-05-28 08:03:00,
2013-05-28 04:04:00,55.1,48.7,30.15,SSW,211,0.0,0.0,79,0.00,,---,0.00,VWS V14.01,2013-05-28 08:04:00,
2013-05-28 04:05:00,55.1,48.7,30.15,SSW,211,0.0,0.0,79,0.00,,---,0.00,VWS V14.01,2013-05-28 08:05:00,
2013-05-28 04:07:00,55.1,49.0,30.16,SSW,211,0.0,0.0,80,0.00,,---,0.00,VWS V14.01,2013-05-28 08:07:00,
2013-05-28 04:09:00,55.0,48.6,30.15,SSW,210,0.0,0.0,79,0.00,,---,0.00,VWS V14.01,2013-05-28 08:09:00,
2013-05-28 04:10:00,55.1,48.4,30.15,SSW,210,0.0,0.0,78,0.00,,---,0.00,VWS V14.01,2013-05-28 08:10:00,
2013-05-28 04:12:00,55.1,48.4,30.15,SSW,210,0.0,0.0,78,0.00,,---,0.00,VWS V14.01,2013-05-28 08:12:00,
2013-05-28 04:13:00,55.1,48.4,30.15,SSW,211,0.0,0.0,78,0.00,,---,0.00,VWS V14.01,2013-05-28 08:13:00,
2013-05-28 04:14:00,55.2,48.5,30.15,SSW,211,0.0,0.0,78,0.00,,---,0.00,VWS V14.01,2013-05-28 08:14:00,
2013-05-28 04:15:00,55.2,48.5,30.15,SSW,210,0.0,0.0,78,0.00,,---,0.00,VWS V14.01,2013-05-28 08:15:00,
2013-05-28 04:18:00,55.2,48.5,30.15,SSW,211,0.0,0.0,78,0.00,,---,0.00,VWS V14.01,2013-05-28 08:18:00,
2013-05-28 04:19:00,55.1,48.4,30.15,SSW,210,0.0,0.0,78,0.00,,---,0.00,VWS V14.01,2013-05-28 08:19:00,
2013-05-28 04:20:00,55.2,48.5,30.15,SSW,211,0.0,0.0,78,0.00,,---,0.00,VWS V14.01,2013-05-28 08:20:00,
2013-05-28 04:21:00,55.1,48.4,30.15,SSW,210,0.0,0.0,78,0.00,,---,0.00,VWS V14.01,2013-05-28 08:21:00,
2013-05-28 04:23:00,55.1,48.7,30.15,SSW,211,0.0,0.0,79,0.00,,---,0.00,VWS V14.01,2013-05-28 08:23:00,
2013-05-28 04:24:00,55.1,48.4,30.16,SSW,211,0.0,0.0,78,0.00,,---,0.00,VWS V14.01,2013-05-28 08:24:00,
2013-05-28 04:25:00,55.1,48.0,30.16,SSW,210,0.0,0.0,77,0.00,,---,0.00,VWS V14.01,2013-05-28 08:25:00,
2013-05-28 04:26:00,55.1,48.0,30.16,SSW,211,0.0,0.0,77,0.00,,---,0.00,VWS V14.01,2013-05-28 08:26:00,
2013-05-28 04:29:00,55.1,48.4,30.16,SSW,211,0.0,0.0,78,0.00,,---,0.00,VWS V14.01,2013-05-28 08:29:00,
2013-05-28 04:30:00,55.1,48.7,30.16,SSW,211,0.0,0.0,79,0.00,,---,0.00,VWS V14.01,2013-05-28 08:30:00,
2013-05-28 04:31:00,55.2,48.5,30.16,SSW,211,0.0,0.0,78,0.00,,---,0.00,VWS V14.01,2013-05-28 08:31:00,
2013-05-28 04:34:00,55.3,48.6,30.16,SSW,211,0.0,0.0,78,0.00,,---,0.00,VWS V14.01,2013-05-28 08:34:00,
2013-05-28 04:35:00,55.3,48.2,30.15,SSW,211,0.0,0.0,77,0.00,,---,0.00,VWS V14.01,2013-05-28 08:35:00,
2013-05-28 04:37:00,55.3,48.2,30.16,SSW,211,0.0,0.0,77,0.00,,---,0.00,VWS V14.01,2013-05-28 08:37:00,
2013-05-28 04:39:00,55.2,48.1,30.16,SSW,210,0.0,0.0,77,0.00,,---,0.00,VWS V14.01,2013-05-28 08:39:00,
2013-05-28 04:40:00,55.3,48.2,30.16,SSW,211,0.0,0.0,77,0.00,,---,0.00,VWS V14.01,2013-05-28 08:40:00,
2013-05-28 04:41:00,55.3,48.2,30.16,SSW,211,0.0,0.0,77,0.00,,---,0.00,VWS V14.01,2013-05-28 08:41:00,
2013-05-28 04:42:00,55.2,48.1,30.16,SSW,211,0.0,0.0,77,0.00,,---,0.00,VWS V14.01,2013-05-28 08:42:00,
2013-05-28 04:45:00,55.3,48.6,30.16,SSW,210,0.0,0.0,78,0.00,,---,0.00,VWS V14.01,2013-05-28 08:45:00,
2013-05-28 04:46:00,55.2,48.5,30.16,SSW,210,0.0,0.0,78,0.00,,---,0.00,VWS V14.01,2013-05-28 08:46:00,
2013-05-28 04:47:00,55.3,48.6,30.16,SSW,211,0.0,0.0,78,0.00,,---,0.00,VWS V14.01,2013-05-28 08:47:00,
2013-05-28 04:51:00,55.3,48.6,30.16,SSW,211,0.0,0.0,78,0.00,,---,0.00,VWS V14.01,2013-05-28 08:51:00,
2013-05-28 04:52:00,55.3,48.2,30.16,SSW,211,0.0,0.0,77,0.00,,---,0.00,VWS V14.01,2013-05-28 08:52:00,
2013-05-28 04:56:00,55.4,48.3,30.16,SSW,210,0.0,0.0,77,0.00,,---,0.00,VWS V14.01,2013-05-28 08:56:00,
2013-05-28 04:57:00,55.4,48.3,30.16,SSW,210,0.0,0.0,77,0.00,,---,0.00,VWS V14.01,2013-05-28 08:57:00,
2013-05-28 05:01:00,55.5,48.1,30.15,SSW,211,0.0,0.0,76,0.00,,---,0.00,VWS V14.01,2013-05-28 09:01:00,
2013-05-28 05:02:00,55.5,48.1,30.15,SSW,210,0.0,0.0,76,0.00,,---,0.00,VWS V14.01,2013-05-28 09:02:00,
2013-05-28 05:07:00,55.5,48.1,30.15,SSW,211,0.0,0.0,76,0.00,,---,0.00,VWS V14.01,2013-05-28 09:07:00,
2013-05-28 05:08:00,55.5,48.1,30.15,SSW,211,0.0,0.0,76,0.00,,---,0.00,VWS V14.01,2013-05-28 09:08:00,
2013-05-28 05:12:00,55.4,48.3,30.15,SSW,210,0.0,0.0,77,0.00,,---,0.00,VWS V14.01,2013-05-28 09:12:00,
2013-05-28 05:13:00,55.4,48.3,30.15,SSW,211,0.0,0.0,77,0.00,,---,0.00,VWS V14.01,2013-05-28 09:13:00,
2013-05-28 05:14:00,55.3,48.2,30.16,SSW,210,0.0,0.0,77,0.00,,---,0.00,VWS V14.01,2013-05-28 09:14:00,
2013-05-28 05:17:00,55.3,48.6,30.15,SSW,210,0.0,0.0,78,0.00,,---,0.00,VWS V14.01,2013-05-28 09:17:00,
2013-05-28 05:18:00,55.3,48.6,30.15,SSW,211,0.0,0.0,78,0.00,,---,0.00,VWS V14.01,2013-05-28 09:18:00,
2013-05-28 05:19:00,55.3,48.6,30.15,SSW,211,0.0,0.0,78,0.00,,---,0.00,VWS V14.01,2013-05-28 09:19:00,
2013-05-28 05:20:00,55.2,48.5,30.15,SSW,210,0.0,0.0,78,0.00,,---,0.00,VWS V14.01,2013-05-28 09:20:00,
2013-05-28 05:22:00,55.3,48.6,30.15,SSW,211,0.0,0.0,78,0.00,,---,0.00,VWS V14.01,2013-05-28 09:22:00,
2013-05-28 05:23:00,55.3,48.6,30.15,SSW,211,0.0,0.0,78,0.00,,---,0.00,VWS V14.01,2013-05-28 09:23:00,
2013-05-28 05:24:00,55.3,48.6,30.15,SSW,211,0.0,0.0,78,0.00,,---,0.00,VWS V14.01,2013-05-28 09:24:00,
2013-05-28 05:25:00,55.3,48.9,30.15,SSW,210,0.0,0.0,79,0.00,,---,0.00,VWS V14.01,2013-05-28 09:25:00,
2013-05-28 05:27:00,55.3,48.9,30.15,SSW,210,0.0,0.0,79,0.00,,---,0.00,VWS V14.01,2013-05-28 09:27:00,
2013-05-28 05:28:00,55.3,48.9,30.15,SSW,210,0.0,0.0,79,0.00,,---,0.00,VWS V14.01,2013-05-28 09:28:00,
2013-05-28 05:29:00,55.2,48.8,30.15,SSW,210,0.0,0.0,79,0.00,,---,0.00,VWS V14.01,2013-05-28 09:29:00,
2013-05-28 05:30:00,55.2,48.5,30.15,SSW,211,0.0,0.0,78,0.00,,---,0.00,VWS V14.01,2013-05-28 09:30:00,
2013-05-28 05:33:00,55.3,48.9,30.15,SSW,211,0.0,0.0,79,0.00,,---,0.00,VWS V14.01,2013-05-28 09:33:00,
2013-05-28 05:34:00,55.3,48.9,30.15,SSW,210,0.0,0.0,79,0.00,,---,0.00,VWS V14.01,2013-05-28 09:34:00,
2013-05-28 05:36:00,55.2,48.8,30.16,NW,314,0.0,2.0,79,0.00,,---,0.00,VWS V14.01,2013-05-28 09:36:00,
2013-05-28 05:38:00,55.1,48.7,30.16,NW,314,0.0,2.0,79,0.00,,---,0.00,VWS V14.01,2013-05-28 09:38:00,
2013-05-28 05:39:00,55.1,48.7,30.16,NW,314,0.0,2.0,79,0.00,,---,0.00,VWS V14.01,2013-05-28 09:39:00,
2013-05-28 05:41:00,55.2,48.5,30.16,NW,314,0.0,2.0,78,0.00,,---,0.00,VWS V14.01,2013-05-28 09:41:00,
2013-05-28 05:43:00,55.2,48.8,30.15,NW,314,0.0,2.0,79,0.00,,---,0.00,VWS V14.01,2013-05-28 09:43:00,
2013-05-28 05:44:00,55.2,48.8,30.15,NW,314,0.0,2.0,79,0.00,,---,0.00,VWS V14.01,2013-05-28 09:44:00,
2013-05-28 05:45:00,55.2,48.8,30.15,NW,314,0.0,2.0,79,0.00,,---,0.00,VWS V14.01,2013-05-28 09:45:00,
2013-05-28 05:47:00,55.1,49.0,30.15,NW,314,0.0,2.0,80,0.00,,---,0.00,VWS V14.01,2013-05-28 09:47:00,
2013-05-28 05:49:00,55.0,48.6,30.15,NW,314,0.0,2.0,79,0.00,,---,0.00,VWS V14.01,2013-05-28 09:49:00,
2013-05-28 05:50:00,55.0,49.0,30.15,NW,314,0.0,2.0,80,0.00,,---,0.00,VWS V14.01,2013-05-28 09:50:00,
2013-05-28 05:52:00,54.9,48.9,30.15,NW,314,0.0,2.0,80,0.00,,---,0.00,VWS V14.01,2013-05-28 09:52:00,
2013-05-28 05:54:00,54.8,48.8,30.15,NW,314,0.0,2.0,80,0.00,,---,0.00,VWS V14.01,2013-05-28 09:54:00,
2013-05-28 05:55:00,54.8,48.8,30.16,NW,314,0.0,2.0,80,0.00,,---,0.00,VWS V14.01,2013-05-28 09:55:00,
2013-05-28 05:58:00,54.8,48.8,30.16,NW,314,0.0,2.0,80,0.00,,---,0.00,VWS V14.01,2013-05-28 09:58:00,
2013-05-28 05:59:00,54.8,48.8,30.16,NW,314,0.0,2.0,80,0.00,,---,0.00,VWS V14.01,2013-05-28 09:59:00,
2013-05-28 06:00:00,54.8,48.8,30.16,NW,314,0.0,2.0,80,0.00,,---,0.00,VWS V14.01,2013-05-28 10:00:00,
2013-05-28 06:03:00,54.7,49.0,30.16,NW,314,0.0,2.0,81,0.00,,---,0.00,VWS V14.01,2013-05-28 10:03:00,
2013-05-28 06:04:00,54.7,49.0,30.16,NW,314,0.0,2.0,81,0.00,,---,0.00,VWS V14.01,2013-05-28 10:04:00,
2013-05-28 06:05:00,54.7,49.0,30.16,NW,314,0.0,0.0,81,0.00,,---,0.00,VWS V14.01,2013-05-28 10:05:00,
2013-05-28 06:06:00,54.7,49.0,30.16,NW,314,0.0,0.0,81,0.00,,---,0.00,VWS V14.01,2013-05-28 10:06:00,
2013-05-28 06:07:00,54.7,49.0,30.16,NW,314,0.0,0.0,81,0.00,,---,0.00,VWS V14.01,2013-05-28 10:07:00,
2013-05-28 06:08:00,54.7,49.0,30.16,NW,314,0.0,0.0,81,0.00,,---,0.00,VWS V14.01,2013-05-28 10:08:00,
2013-05-28 06:09:00,54.7,49.0,30.16,NW,314,0.0,0.0,81,0.00,,---,0.00,VWS V14.01,2013-05-28 10:09:00,
2013-05-28 06:11:00,54.7,49.0,30.16,NW,314,0.0,0.0,81,0.00,,---,0.00,VWS V14.01,2013-05-28 10:11:00,
2013-05-28 06:12:00,54.7,49.0,30.16,NW,314,0.0,0.0,81,0.00,,---,0.00,VWS V14.01,2013-05-28 10:12:00,
2013-05-28 06:13:00,54.7,49.0,30.17,NW,314,0.0,0.0,81,0.00,,---,0.00,VWS V14.01,2013-05-28 10:13:00,
2013-05-28 06:14:00,54.7,49.0,30.17,NW,314,0.0,0.0,81,0.00,,---,0.00,VWS V14.01,2013-05-28 10:14:00,
2013-05-28 06:17:00,54.8,48.8,30.17,NW,314,0.0,0.0,80,0.00,,---,0.00,VWS V14.01,2013-05-28 10:17:00,
2013-05-28 06:19:00,54.9,48.9,30.17,NW,314,0.0,0.0,80,0.00,,---,0.00,VWS V14.01,2013-05-28 10:19:00,
2013-05-28 06:22:00,54.9,48.9,30.16,NW,314,0.0,0.0,80,0.00,,---,0.00,VWS V14.01,2013-05-28 10:22:00,
2013-05-28 06:23:00,55.0,49.0,30.16,NW,314,0.0,0.0,80,0.00,,---,0.00,VWS V14.01,2013-05-28 10:23:00,
2013-05-28 06:24:00,55.0,49.0,30.17,NW,314,0.0,0.0,80,0.00,,---,0.00,VWS V14.01,2013-05-28 10:24:00,
2013-05-28 06:25:00,55.0,49.0,30.16,NW,314,0.0,0.0,80,0.00,,---,0.00,VWS V14.01,2013-05-28 10:25:00,
2013-05-28 06:27:00,55.0,49.3,30.17,NW,314,0.0,0.0,81,0.00,,---,0.00,VWS V14.01,2013-05-28 10:27:00,
2013-05-28 06:28:00,55.0,49.3,30.17,NW,314,0.0,0.0,81,0.00,,---,0.00,VWS V14.01,2013-05-28 10:28:00,
2013-05-28 06:29:00,55.0,49.3,30.17,NW,314,0.0,0.0,81,0.00,,---,0.00,VWS V14.01,2013-05-28 10:29:00,
2013-05-28 06:31:00,55.0,49.3,30.16,NW,314,0.0,1.0,81,0.00,,---,0.00,VWS V14.01,2013-05-28 10:31:00,
2013-05-28 06:32:00,55.1,49.4,30.16,NW,314,0.0,1.0,81,0.00,,---,0.00,VWS V14.01,2013-05-28 10:32:00,
2013-05-28 06:33:00,55.1,49.4,30.16,NW,314,0.0,1.0,81,0.00,,---,0.00,VWS V14.01,2013-05-28 10:33:00,
2013-05-28 06:35:00,55.1,49.4,30.17,NW,314,0.0,0.0,81,0.00,,---,0.00,VWS V14.01,2013-05-28 10:35:00,
2013-05-28 06:37:00,55.2,49.5,30.17,NW,314,0.0,0.0,81,0.00,,---,0.00,VWS V14.01,2013-05-28 10:37:00,
2013-05-28 06:38:00,55.2,49.5,30.17,NW,314,0.0,0.0,81,0.00,,---,0.00,VWS V14.01,2013-05-28 10:38:00,
2013-05-28 06:39:00,55.3,49.9,30.17,NW,314,0.0,0.0,82,0.00,,---,0.00,VWS V14.01,2013-05-28 10:39:00,
2013-05-28 06:40:00,55.2,49.8,30.16,NW,314,0.0,0.0,82,0.00,,---,0.00,VWS V14.01,2013-05-28 10:40:00,
2013-05-28 06:42:00,55.2,49.8,30.17,NW,314,0.0,0.0,82,0.00,,---,0.00,VWS V14.01,2013-05-28 10:42:00,
2013-05-28 06:43:00,55.2,49.8,30.17,NW,314,0.0,0.0,82,0.00,,---,0.00,VWS V14.01,2013-05-28 10:43:00,
2013-05-28 06:44:00,55.1,50.0,30.17,NW,314,0.0,0.0,83,0.00,,---,0.00,VWS V14.01,2013-05-28 10:44:00,
2013-05-28 06:45:00,55.1,50.0,30.17,NW,314,1.0,1.0,83,0.00,,---,0.00,VWS V14.01,2013-05-28 10:45:00,
2013-05-28 06:48:00,55.1,50.0,30.17,NW,314,0.0,1.0,83,0.00,,---,0.00,VWS V14.01,2013-05-28 10:48:00,
2013-05-28 06:49:00,55.1,50.4,30.17,NW,314,0.0,1.0,84,0.00,,---,0.00,VWS V14.01,2013-05-28 10:49:00,
2013-05-28 06:50:00,55.1,50.4,30.17,NW,314,0.0,1.0,84,0.00,,---,0.00,VWS V14.01,2013-05-28 10:50:00,
2013-05-28 06:51:00,55.1,50.4,30.17,NW,314,0.0,1.0,84,0.00,,---,0.00,VWS V14.01,2013-05-28 10:51:00,
2013-05-28 06:53:00,55.1,50.7,30.17,NW,314,0.0,1.0,85,0.00,,---,0.00,VWS V14.01,2013-05-28 10:53:00,
2013-05-28 06:54:00,55.1,50.7,30.17,NW,314,0.0,1.0,85,0.00,,---,0.00,VWS V14.01,2013-05-28 10:54:00,
2013-05-28 06:55:00,55.1,50.7,30.17,NW,314,0.0,1.0,85,0.00,,---,0.00,VWS V14.01,2013-05-28 10:55:00,
2013-05-28 06:56:00,55.0,50.6,30.17,NW,314,0.0,1.0,85,0.00,,---,0.00,VWS V14.01,2013-05-28 10:56:00,
2013-05-28 06:59:00,55.0,50.6,30.17,NW,314,0.0,1.0,85,0.00,,---,0.00,VWS V14.01,2013-05-28 10:59:00,
2013-05-28 07:00:00,55.0,50.9,30.16,NW,314,0.0,1.0,86,0.00,,---,0.00,VWS V14.01,2013-05-28 11:00:00,
2013-05-28 07:02:00,55.0,50.9,30.16,NW,314,0.0,1.0,86,0.00,,---,0.00,VWS V14.01,2013-05-28 11:02:00,
2013-05-28 07:04:00,55.0,50.9,30.16,NW,314,0.0,1.0,86,0.00,,---,0.00,VWS V14.01,2013-05-28 11:04:00,
2013-05-28 07:05:00,55.0,51.2,30.17,NW,314,0.0,0.0,87,0.00,,---,0.00,VWS V14.01,2013-05-28 11:05:00,
2013-05-28 07:07:00,55.0,51.2,30.17,ENE,63,0.0,3.0,87,0.00,,---,0.00,VWS V14.01,2013-05-28 11:07:00,
2013-05-28 07:09:00,55.0,51.2,30.17,ENE,63,0.0,3.0,87,0.00,,---,0.00,VWS V14.01,2013-05-28 11:09:00,
2013-05-28 07:10:00,55.0,51.2,30.17,ENE,63,0.0,3.0,87,0.00,,---,0.00,VWS V14.01,2013-05-28 11:10:00,
2013-05-28 07:11:00,55.0,51.2,30.17,ENE,63,0.0,3.0,87,0.00,,---,0.00,VWS V14.01,2013-05-28 11:11:00,
2013-05-28 07:12:00,55.0,51.2,30.17,ENE,63,0.0,3.0,87,0.00,,---,0.00,VWS V14.01,2013-05-28 11:12:00,
2013-05-28 07:14:00,55.0,51.2,30.17,East,84,0.0,3.0,87,0.00,,---,0.00,VWS V14.01,2013-05-28 11:14:00,
2013-05-28 07:15:00,55.1,51.3,30.17,East,84,0.0,3.0,87,0.00,,---,0.00,VWS V14.01,2013-05-28 11:15:00,
2013-05-28 07:17:00,55.1,51.3,30.17,East,84,0.0,3.0,87,0.00,,---,0.00,VWS V14.01,2013-05-28 11:17:00,
2013-05-28 07:19:00,55.1,51.3,30.17,East,84,0.0,3.0,87,0.00,,---,0.00,VWS V14.01,2013-05-28 11:19:00,
2013-05-28 07:20:00,55.1,51.3,30.17,East,84,0.0,3.0,87,0.00,,---,0.00,VWS V14.01,2013-05-28 11:20:00,
2013-05-28 07:21:00,55.1,51.3,30.17,East,83,0.0,3.0,87,0.00,,---,0.00,VWS V14.01,2013-05-28 11:21:00,
2013-05-28 07:22:00,55.1,51.6,30.17,East,84,0.0,3.0,88,0.00,,---,0.00,VWS V14.01,2013-05-28 11:22:00,
2013-05-28 07:23:00,55.1,51.6,30.17,East,84,0.0,3.0,88,0.00,,---,0.00,VWS V14.01,2013-05-28 11:23:00,
2013-05-28 07:25:00,55.0,51.5,30.17,East,83,0.0,3.0,88,0.00,,---,0.00,VWS V14.01,2013-05-28 11:25:00,
2013-05-28 07:26:00,55.0,51.5,30.16,East,83,0.0,3.0,88,0.00,,---,0.00,VWS V14.01,2013-05-28 11:26:00,
2013-05-28 07:28:00,54.9,51.7,30.16,East,83,1.0,3.0,89,0.00,,---,0.00,VWS V14.01,2013-05-28 11:28:00,
2013-05-28 07:30:00,54.8,51.9,30.16,East,84,0.0,3.0,90,0.00,,---,0.00,VWS V14.01,2013-05-28 11:30:00,
2013-05-28 07:32:00,54.7,51.8,30.16,East,84,0.0,3.0,90,0.00,,---,0.00,VWS V14.01,2013-05-28 11:32:00,
2013-05-28 07:33:00,54.6,51.7,30.17,East,84,0.0,3.0,90,0.00,,---,0.00,VWS V14.01,2013-05-28 11:33:00,
2013-05-28 07:34:00,54.6,52.0,30.17,East,83,0.0,3.0,91,0.00,,---,0.00,VWS V14.01,2013-05-28 11:34:00,
2013-05-28 07:35:00,54.6,52.0,30.17,East,83,0.0,0.0,91,0.00,,---,0.00,VWS V14.01,2013-05-28 11:35:00,
2013-05-28 07:36:00,54.5,52.2,30.17,East,84,0.0,0.0,92,0.00,,---,0.00,VWS V14.01,2013-05-28 11:36:00,
2013-05-28 07:37:00,54.5,52.2,30.17,NE,46,0.0,2.0,92,0.00,,---,0.00,VWS V14.01,2013-05-28 11:37:00,
2013-05-28 07:38:00,54.4,52.1,30.17,NE,46,0.0,2.0,92,0.00,,---,0.00,VWS V14.01,2013-05-28 11:38:00,
2013-05-28 07:39:00,54.4,52.4,30.17,NE,46,0.0,2.0,93,0.00,,---,0.00,VWS V14.01,2013-05-28 11:39:00,
2013-05-28 07:40:00,54.4,52.4,30.17,NE,46,0.0,2.0,93,0.00,,---,0.00,VWS V14.01,2013-05-28 11:40:00,
2013-05-28 07:41:00,54.3,52.3,30.17,NE,46,0.0,2.0,93,0.00,,---,0.00,VWS V14.01,2013-05-28 11:41:00,
2013-05-28 07:43:00,54.2,52.2,30.17,NE,46,0.0,2.0,93,0.00,,---,0.00,VWS V14.01,2013-05-28 11:43:00,
2013-05-28 07:44:00,54.2,52.2,30.17,NE,46,0.0,2.0,93,0.00,,---,0.00,VWS V14.01,2013-05-28 11:44:00,
2013-05-28 07:46:00,54.2,52.5,30.17,NE,46,0.0,2.0,94,0.00,,---,0.00,VWS V14.01,2013-05-28 11:46:00,
2013-05-28 07:48:00,54.2,52.5,30.17,NE,46,0.0,2.0,94,0.00,,---,0.00,VWS V14.01,2013-05-28 11:48:00,
2013-05-28 07:51:00,54.1,52.4,30.17,NE,46,0.0,2.0,94,0.00,,---,0.00,VWS V14.01,2013-05-28 11:51:00,
2013-05-28 07:52:00,54.1,52.4,30.17,NE,46,0.0,2.0,94,0.00,,---,0.00,VWS V14.01,2013-05-28 11:52:00,
2013-05-28 07:53:00,54.1,52.4,30.17,NE,46,0.0,2.0,94,0.00,,---,0.00,VWS V14.01,2013-05-28 11:53:00,
2013-05-28 07:56:00,54.1,52.7,30.16,NE,46,0.0,2.0,95,0.00,,---,0.00,VWS V14.01,2013-05-28 11:56:00,
2013-05-28 07:57:00,54.2,52.8,30.16,NE,46,0.0,2.0,95,0.00,,---,0.00,VWS V14.01,2013-05-28 11:57:00,
2013-05-28 07:59:00,54.2,52.8,30.16,NE,46,0.0,2.0,95,0.00,,---,0.00,VWS V14.01,2013-05-28 11:59:00,
2013-05-28 08:01:00,54.2,52.8,30.16,NE,46,0.0,2.0,95,0.00,,---,0.00,VWS V14.01,2013-05-28 12:01:00,
2013-05-28 08:02:00,54.2,52.8,30.16,NE,46,0.0,2.0,95,0.00,,---,0.00,VWS V14.01,2013-05-28 12:02:00,
2013-05-28 08:04:00,54.3,52.9,30.16,NE,45,0.0,2.0,95,0.00,,---,0.00,VWS V14.01,2013-05-28 12:04:00,
2013-05-28 08:07:00,54.3,53.2,30.17,NE,46,0.0,0.0,96,0.00,,---,0.00,VWS V14.01,2013-05-28 12:07:00,
2013-05-28 08:09:00,54.3,53.2,30.17,NE,46,0.0,1.0,96,0.00,,---,0.00,VWS V14.01,2013-05-28 12:09:00,
2013-05-28 08:12:00,54.3,53.2,30.17,NE,46,0.0,1.0,96,0.00,,---,0.00,VWS V14.01,2013-05-28 12:12:00,
2013-05-28 08:15:00,54.3,52.9,30.17,NE,46,0.0,1.0,95,0.00,,---,0.00,VWS V14.01,2013-05-28 12:15:00,
2013-05-28 08:17:00,54.4,53.0,30.17,NE,46,0.0,1.0,95,0.00,,---,0.00,VWS V14.01,2013-05-28 12:17:00,
2013-05-28 08:18:00,54.4,53.0,30.16,NE,45,0.0,1.0,95,0.00,,---,0.00,VWS V14.01,2013-05-28 12:18:00,
2013-05-28 08:20:00,54.4,53.0,30.17,NE,46,0.0,1.0,95,0.00,,---,0.00,VWS V14.01,2013-05-28 12:20:00,
2013-05-28 08:22:00,54.4,53.0,30.17,NE,46,0.0,1.0,95,0.00,,---,0.00,VWS V14.01,2013-05-28 12:22:00,
2013-05-28 08:23:00,54.4,53.0,30.17,NE,46,0.0,1.0,95,0.00,,---,0.00,VWS V14.01,2013-05-28 12:23:00,
2013-05-28 08:24:00,54.5,53.1,30.17,NE,45,0.0,1.0,95,0.00,,---,0.00,VWS V14.01,2013-05-28 12:24:00,
2013-05-28 08:26:00,54.5,53.1,30.17,NE,45,0.0,1.0,95,0.00,,---,0.00,VWS V14.01,2013-05-28 12:26:00,
2013-05-28 08:27:00,54.5,53.1,30.17,NE,45,0.0,1.0,95,0.00,,---,0.00,VWS V14.01,2013-05-28 12:27:00,
2013-05-28 08:29:00,54.5,53.1,30.17,NE,45,0.0,1.0,95,0.00,,---,0.00,VWS V14.01,2013-05-28 12:29:00,
2013-05-28 08:30:00,54.5,53.1,30.17,NE,46,0.0,1.0,95,0.00,,---,0.00,VWS V14.01,2013-05-28 12:30:00,
2013-05-28 08:31:00,54.5,53.1,30.17,NE,46,0.0,1.0,95,0.00,,---,0.00,VWS V14.01,2013-05-28 12:31:00,
2013-05-28 08:33:00,54.5,53.1,30.17,NE,45,0.0,1.0,95,0.00,,---,0.00,VWS V14.01,2013-05-28 12:33:00,
2013-05-28 08:34:00,54.6,53.2,30.16,NE,45,0.0,1.0,95,0.00,,---,0.00,VWS V14.01,2013-05-28 12:34:00,
2013-05-28 08:35:00,54.6,53.2,30.17,NE,46,0.0,0.0,95,0.00,,---,0.00,VWS V14.01,2013-05-28 12:35:00,
2013-05-28 08:36:00,54.7,53.3,30.17,NE,46,0.0,0.0,95,0.00,,---,0.00,VWS V14.01,2013-05-28 12:36:00,
2013-05-28 08:39:00,54.8,53.4,30.17,NE,45,0.0,0.0,95,0.00,,---,0.00,VWS V14.01,2013-05-28 12:39:00,
2013-05-28 08:40:00,54.8,53.4,30.17,NE,45,0.0,0.0,95,0.00,,---,0.00,VWS V14.01,2013-05-28 12:40:00,
2013-05-28 08:41:00,54.7,53.3,30.17,NE,45,0.0,0.0,95,0.00,,---,0.00,VWS V14.01,2013-05-28 12:41:00,
2013-05-28 08:44:00,54.8,53.4,30.17,NE,46,0.0,0.0,95,0.00,,---,0.00,VWS V14.01,2013-05-28 12:44:00,
2013-05-28 08:46:00,54.8,53.4,30.17,NE,46,0.0,0.0,95,0.00,,---,0.00,VWS V14.01,2013-05-28 12:46:00,
2013-05-28 08:47:00,54.8,53.4,30.17,NE,45,0.0,0.0,95,0.00,,---,0.00,VWS V14.01,2013-05-28 12:47:00,
2013-05-28 08:49:00,55.0,53.6,30.17,NE,46,0.0,0.0,95,0.00,,---,0.00,VWS V14.01,2013-05-28 12:49:00,
2013-05-28 08:50:00,55.0,53.6,30.17,NE,46,0.0,0.0,95,0.00,,---,0.00,VWS V14.01,2013-05-28 12:50:00,
2013-05-28 08:51:00,55.1,53.7,30.17,NE,46,0.0,0.0,95,0.00,,---,0.00,VWS V14.01,2013-05-28 12:51:00,
2013-05-28 08:52:00,55.3,54.2,30.17,NE,46,0.0,0.0,96,0.00,,---,0.00,VWS V14.01,2013-05-28 12:52:00,
2013-05-28 08:54:00,55.2,53.5,30.17,NE,45,0.0,0.0,94,0.00,,---,0.00,VWS V14.01,2013-05-28 12:54:00,
2013-05-28 08:55:00,55.2,53.5,30.17,NE,46,0.0,0.0,94,0.00,,---,0.00,VWS V14.01,2013-05-28 12:55:00,
2013-05-28 08:56:00,55.3,53.6,30.17,NE,46,0.0,0.0,94,0.00,,---,0.00,VWS V14.01,2013-05-28 12:56:00,
2013-05-28 08:57:00,55.4,53.7,30.17,NE,45,0.0,0.0,94,0.00,,---,0.00,VWS V14.01,2013-05-28 12:57:00,
2013-05-28 08:59:00,55.6,54.2,30.17,NE,46,0.0,0.0,95,0.00,,---,0.00,VWS V14.01,2013-05-28 12:59:00,
2013-05-28 09:00:00,55.7,54.3,30.17,NE,46,0.0,0.0,95,0.00,,---,0.00,VWS V14.01,2013-05-28 13:00:00,
2013-05-28 09:01:00,55.8,54.4,30.18,NE,46,0.0,0.0,95,0.00,,---,0.00,VWS V14.01,2013-05-28 13:01:00,
2013-05-28 09:02:00,55.8,54.1,30.18,NE,46,0.0,0.0,94,0.00,,---,0.00,VWS V14.01,2013-05-28 13:02:00,
2013-05-28 09:04:00,55.8,54.1,30.18,NE,46,0.0,0.0,94,0.00,,---,0.00,VWS V14.01,2013-05-28 13:04:00,
2013-05-28 09:06:00,55.7,53.7,30.18,NE,46,0.0,0.0,93,0.00,,---,0.00,VWS V14.01,2013-05-28 13:06:00,
2013-05-28 09:07:00,55.7,53.7,30.18,NE,45,0.0,0.0,93,0.00,,---,0.00,VWS V14.01,2013-05-28 13:07:00,
2013-05-28 09:09:00,55.9,53.9,30.18,NE,46,0.0,0.0,93,0.00,,---,0.00,VWS V14.01,2013-05-28 13:09:00,
2013-05-28 09:11:00,56.0,54.0,30.18,NE,46,0.0,0.0,93,0.00,,---,0.00,VWS V14.01,2013-05-28 13:11:00,
2013-05-28 09:12:00,56.1,54.1,30.18,NE,46,0.0,0.0,93,0.00,,---,0.00,VWS V14.01,2013-05-28 13:12:00,
2013-05-28 09:14:00,56.2,54.2,30.19,NE,45,0.0,0.0,93,0.00,,---,0.00,VWS V14.01,2013-05-28 13:14:00,
2013-05-28 09:15:00,56.3,54.6,30.19,NE,46,0.0,0.0,94,0.00,,---,0.00,VWS V14.01,2013-05-28 13:15:00,
2013-05-28 09:17:00,56.3,54.3,30.19,NE,46,0.0,0.0,93,0.00,,---,0.00,VWS V14.01,2013-05-28 13:17:00,
2013-05-28 09:18:00,56.4,54.4,30.19,NE,45,0.0,0.0,93,0.00,,---,0.00,VWS V14.01,2013-05-28 13:18:00,
2013-05-28 09:20:00,56.5,54.5,30.18,NE,46,0.0,0.0,93,0.00,,---,0.00,VWS V14.01,2013-05-28 13:20:00,
2013-05-28 09:22:00,56.4,54.4,30.18,NE,46,0.0,0.0,93,0.00,,---,0.00,VWS V14.01,2013-05-28 13:22:00,
2013-05-28 09:23:00,56.4,54.4,30.18,NE,46,0.0,0.0,93,0.00,,---,0.00,VWS V14.01,2013-05-28 13:23:00,
2013-05-28 09:25:00,56.4,54.4,30.18,NE,45,0.0,0.0,93,0.00,,---,0.00,VWS V14.01,2013-05-28 13:25:00,
2013-05-28 09:27:00,56.4,54.4,30.18,NE,46,0.0,0.0,93,0.00,,---,0.00,VWS V14.01,2013-05-28 13:27:00,
2013-05-28 09:28:00,56.4,54.1,30.18,NE,45,0.0,0.0,92,0.00,,---,0.00,VWS V14.01,2013-05-28 13:28:00,
2013-05-28 09:29:00,56.4,54.4,30.18,NE,45,0.0,0.0,93,0.00,,---,0.00,VWS V14.01,2013-05-28 13:29:00,
2013-05-28 09:31:00,56.4,54.4,30.18,NE,45,0.0,0.0,93,0.00,,---,0.00,VWS V14.01,2013-05-28 13:31:00,
2013-05-28 09:33:00,56.5,54.5,30.17,NE,45,0.0,0.0,93,0.00,,---,0.00,VWS V14.01,2013-05-28 13:33:00,
2013-05-28 09:35:00,56.5,54.5,30.17,NE,46,0.0,0.0,93,0.00,,---,0.00,VWS V14.01,2013-05-28 13:35:00,
2013-05-28 09:36:00,56.6,54.6,30.17,NE,45,0.0,0.0,93,0.00,,---,0.00,VWS V14.01,2013-05-28 13:36:00,
2013-05-28 09:38:00,56.7,55.0,30.17,NE,45,0.0,0.0,94,0.00,,---,0.00,VWS V14.01,2013-05-28 13:38:00,
2013-05-28 09:40:00,56.7,55.0,30.17,NE,46,0.0,0.0,94,0.00,,---,0.00,VWS V14.01,2013-05-28 13:40:00,
2013-05-28 09:41:00,56.6,54.9,30.17,NE,46,0.0,0.0,94,0.00,,---,0.00,VWS V14.01,2013-05-28 13:41:00,
2013-05-28 09:42:00,56.6,54.9,30.17,NE,45,0.0,0.0,94,0.00,,---,0.00,VWS V14.01,2013-05-28 13:42:00,
2013-05-28 09:44:00,56.6,54.9,30.17,NE,46,0.0,0.0,94,0.01,,---,0.01,VWS V14.01,2013-05-28 13:44:00,
2013-05-28 09:45:00,56.5,54.8,30.17,NE,45,0.0,0.0,94,0.01,,---,0.01,VWS V14.01,2013-05-28 13:45:00,
2013-05-28 09:47:00,56.5,54.8,30.17,NE,46,0.0,0.0,94,0.01,,---,0.01,VWS V14.01,2013-05-28 13:47:00,
2013-05-28 09:48:00,56.4,55.0,30.17,NE,46,0.0,0.0,95,0.01,,---,0.01,VWS V14.01,2013-05-28 13:48:00,
2013-05-28 09:49:00,56.4,55.0,30.17,NE,46,0.0,0.0,95,0.01,,---,0.01,VWS V14.01,2013-05-28 13:49:00,
2013-05-28 09:50:00,56.4,55.0,30.17,NE,46,0.0,0.0,95,0.01,,---,0.01,VWS V14.01,2013-05-28 13:50:00,
2013-05-28 09:52:00,56.2,54.8,30.17,NE,46,0.0,0.0,95,0.02,,---,0.02,VWS V14.01,2013-05-28 13:52:00,
2013-05-28 09:53:00,56.0,54.6,30.17,NE,46,0.0,0.0,95,0.02,,---,0.02,VWS V14.01,2013-05-28 13:53:00,
2013-05-28 09:54:00,55.9,54.5,30.17,NE,46,0.0,0.0,95,0.02,,---,0.02,VWS V14.01,2013-05-28 13:54:00,
2013-05-28 09:55:00,55.9,54.5,30.17,NE,45,0.0,0.0,95,0.02,,---,0.02,VWS V14.01,2013-05-28 13:55:00,
2013-05-28 09:57:00,55.8,54.4,30.17,NE,46,0.0,0.0,95,0.02,,---,0.02,VWS V14.01,2013-05-28 13:57:00,
2013-05-28 09:59:00,55.7,54.6,30.17,NE,46,0.0,0.0,96,0.02,,---,0.02,VWS V14.01,2013-05-28 13:59:00,
2013-05-28 10:00:00,55.7,54.6,30.16,NE,46,0.0,0.0,96,0.02,,---,0.02,VWS V14.01,2013-05-28 14:00:00,
2013-05-28 10:01:00,55.6,54.5,30.16,NE,46,0.0,0.0,96,0.02,,---,0.02,VWS V14.01,2013-05-28 14:01:00,
2013-05-28 10:02:00,55.6,54.5,30.16,NE,46,0.0,0.0,96,0.02,,---,0.02,VWS V14.01,2013-05-28 14:02:00,
2013-05-28 10:04:00,55.5,54.4,30.16,NE,45,0.0,0.0,96,0.02,,---,0.02,VWS V14.01,2013-05-28 14:04:00,
2013-05-28 10:05:00,55.4,54.3,30.16,East,83,0.0,2.0,96,0.02,,---,0.02,VWS V14.01,2013-05-28 14:05:00,
2013-05-28 10:06:00,55.3,54.2,30.16,East,82,0.0,2.0,96,0.02,,---,0.02,VWS V14.01,2013-05-28 14:06:00,
2013-05-28 10:07:00,55.2,54.4,30.16,East,82,0.0,2.0,97,0.02,,---,0.02,VWS V14.01,2013-05-28 14:07:00,
2013-05-28 10:09:00,55.1,54.3,30.16,East,82,0.0,2.0,97,0.02,,---,0.02,VWS V14.01,2013-05-28 14:09:00,
2013-05-28 10:10:00,55.1,54.3,30.16,East,82,0.0,2.0,97,0.02,,---,0.02,VWS V14.01,2013-05-28 14:10:00,
2013-05-28 10:11:00,55.1,54.3,30.16,East,82,0.0,2.0,97,0.03,,---,0.03,VWS V14.01,2013-05-28 14:11:00,
2013-05-28 10:13:00,55.1,54.3,30.16,East,82,0.0,2.0,97,0.03,,---,0.03,VWS V14.01,2013-05-28 14:13:00,
2013-05-28 10:14:00,55.1,54.5,30.16,East,82,0.0,2.0,98,0.03,,---,0.03,VWS V14.01,2013-05-28 14:14:00,
2013-05-28 10:15:00,55.1,54.5,30.16,East,82,0.0,2.0,98,0.03,,---,0.03,VWS V14.01,2013-05-28 14:15:00,
2013-05-28 10:17:00,55.0,54.2,30.16,East,82,0.0,2.0,97,0.03,,---,0.03,VWS V14.01,2013-05-28 14:17:00,
2013-05-28 10:19:00,54.9,54.3,30.15,East,82,0.0,2.0,98,0.03,,---,0.03,VWS V14.01,2013-05-28 14:19:00,
2013-05-28 10:20:00,54.9,54.3,30.15,East,82,0.0,2.0,98,0.03,,---,0.03,VWS V14.01,2013-05-28 14:20:00,
2013-05-28 10:22:00,54.8,54.2,30.15,East,82,0.0,2.0,98,0.03,,---,0.03,VWS V14.01,2013-05-28 14:22:00,
2013-05-28 10:23:00,54.8,54.2,30.15,East,82,0.0,2.0,98,0.03,,---,0.03,VWS V14.01,2013-05-28 14:23:00,
2013-05-28 10:24:00,54.9,54.3,30.15,East,82,0.0,2.0,98,0.03,,---,0.03,VWS V14.01,2013-05-28 14:24:00,
2013-05-28 10:25:00,54.9,54.3,30.16,East,82,0.0,2.0,98,0.03,,---,0.03,VWS V14.01,2013-05-28 14:25:00,
2013-05-28 10:27:00,54.9,54.3,30.16,East,82,0.0,2.0,98,0.03,,---,0.03,VWS V14.01,2013-05-28 14:27:00,
2013-05-28 10:28:00,54.9,54.3,30.16,East,82,0.0,2.0,98,0.03,,---,0.03,VWS V14.01,2013-05-28 14:28:00,
2013-05-28 10:29:00,55.0,54.5,30.16,East,82,0.0,2.0,98,0.03,,---,0.03,VWS V14.01,2013-05-28 14:29:00,
2013-05-28 10:30:00,55.0,54.7,30.16,East,82,0.0,2.0,99,0.03,,---,0.03,VWS V14.01,2013-05-28 14:30:00,
2013-05-28 10:31:00,55.0,54.7,30.15,East,82,0.0,2.0,99,0.03,,---,0.03,VWS V14.01,2013-05-28 14:31:00,
2013-05-28 10:32:00,55.0,54.7,30.15,East,82,0.0,2.0,99,0.03,,---,0.03,VWS V14.01,2013-05-28 14:32:00,
2013-05-28 10:34:00,55.1,54.8,30.15,East,82,0.0,2.0,99,0.03,,---,0.03,VWS V14.01,2013-05-28 14:34:00,
2013-05-28 10:35:00,55.1,54.8,30.15,East,82,0.0,0.0,99,0.03,,---,0.03,VWS V14.01,2013-05-28 14:35:00,
2013-05-28 10:36:00,55.2,54.9,30.15,East,83,0.0,0.0,99,0.03,,---,0.03,VWS V14.01,2013-05-28 14:36:00,
2013-05-28 10:37:00,55.1,54.8,30.15,East,82,0.0,0.0,99,0.03,,---,0.03,VWS V14.01,2013-05-28 14:37:00,
2013-05-28 10:39:00,55.1,54.8,30.15,East,82,0.0,0.0,99,0.03,,---,0.03,VWS V14.01,2013-05-28 14:39:00,
2013-05-28 10:40:00,55.1,54.8,30.15,East,82,0.0,0.0,99,0.03,,---,0.03,VWS V14.01,2013-05-28 14:40:00,
2013-05-28 10:41:00,55.1,54.8,30.15,East,82,0.0,0.0,99,0.03,,---,0.03,VWS V14.01,2013-05-28 14:41:00,
2013-05-28 10:42:00,55.3,55.0,30.15,East,82,0.0,0.0,99,0.03,,---,0.03,VWS V14.01,2013-05-28 14:42:00,
2013-05-28 10:45:00,55.4,55.1,30.15,East,82,0.0,0.0,99,0.03,,---,0.03,VWS V14.01,2013-05-28 14:45:00,
2013-05-28 10:46:00,55.4,55.1,30.15,East,82,0.0,0.0,99,0.03,,---,0.03,VWS V14.01,2013-05-28 14:46:00,
2013-05-28 10:48:00,55.5,55.2,30.15,East,82,0.0,0.0,99,0.03,,---,0.03,VWS V14.01,2013-05-28 14:48:00,
2013-05-28 10:50:00,55.5,55.2,30.15,East,83,2.0,2.0,99,0.03,,---,0.03,VWS V14.01,2013-05-28 14:50:00,
2013-05-28 10:51:00,55.5,55.2,30.15,East,83,0.0,2.0,99,0.03,,---,0.03,VWS V14.01,2013-05-28 14:51:00,
2013-05-28 10:53:00,55.6,55.3,30.15,East,82,0.0,2.0,99,0.03,,---,0.03,VWS V14.01,2013-05-28 14:53:00,
2013-05-28 10:55:00,55.8,55.5,30.15,East,82,0.0,2.0,99,0.03,,---,0.03,VWS V14.01,2013-05-28 14:55:00,
2013-05-28 10:56:00,55.9,55.9,30.15,East,82,0.0,2.0,100,0.03,,---,0.03,VWS V14.01,2013-05-28 14:56:00,
2013-05-28 10:57:00,55.9,55.9,30.15,East,82,0.0,2.0,100,0.03,,---,0.03,VWS V14.01,2013-05-28 14:57:00,
2013-05-28 10:58:00,55.8,55.8,30.15,East,82,0.0,2.0,100,0.03,,---,0.03,VWS V14.01,2013-05-28 14:58:00,
2013-05-28 11:00:00,55.5,55.2,30.15,East,82,0.0,2.0,99,0.03,,---,0.03,VWS V14.01,2013-05-28 15:00:00,
2013-05-28 11:01:00,55.5,55.2,30.15,East,82,0.0,2.0,99,0.03,,---,0.03,VWS V14.01,2013-05-28 15:01:00,
2013-05-28 11:02:00,55.5,55.2,30.15,East,82,0.0,2.0,99,0.03,,---,0.03,VWS V14.01,2013-05-28 15:02:00,
2013-05-28 11:04:00,55.6,55.3,30.15,East,82,0.0,2.0,99,0.03,,---,0.03,VWS V14.01,2013-05-28 15:04:00,
2013-05-28 11:05:00,55.7,55.4,30.16,East,82,0.0,0.0,99,0.01,,---,0.03,VWS V14.01,2013-05-28 15:05:00,
2013-05-28 11:06:00,55.8,55.5,30.16,East,82,0.0,0.0,99,0.01,,---,0.03,VWS V14.01,2013-05-28 15:06:00,
2013-05-28 11:07:00,55.8,55.8,30.16,East,82,0.0,0.0,100,0.01,,---,0.03,VWS V14.01,2013-05-28 15:07:00,
2013-05-28 11:09:00,55.8,55.8,30.15,East,82,0.0,1.0,100,0.01,,---,0.03,VWS V14.01,2013-05-28 15:09:00,
2013-05-28 11:11:00,55.7,55.7,30.15,East,82,0.0,1.0,100,0.01,,---,0.03,VWS V14.01,2013-05-28 15:11:00,
2013-05-28 11:12:00,55.8,55.8,30.15,East,101,0.0,1.0,100,0.01,,---,0.03,VWS V14.01,2013-05-28 15:12:00,
2013-05-28 11:14:00,55.9,55.9,30.15,East,101,0.0,1.0,100,0.01,,---,0.03,VWS V14.01,2013-05-28 15:14:00,
2013-05-28 11:17:00,56.6,56.6,30.15,East,101,0.0,1.0,100,0.01,,---,0.03,VWS V14.01,2013-05-28 15:17:00,
2013-05-28 11:19:00,56.8,56.8,30.15,East,101,0.0,1.0,100,0.01,,---,0.03,VWS V14.01,2013-05-28 15:19:00,
2013-05-28 11:22:00,57.0,57.0,30.15,East,101,0.0,1.0,100,0.01,,---,0.03,VWS V14.01,2013-05-28 15:22:00,
2013-05-28 11:23:00,56.9,56.9,30.15,East,101,0.0,1.0,100,0.01,,---,0.03,VWS V14.01,2013-05-28 15:23:00,
2013-05-28 11:24:00,56.8,56.5,30.15,East,101,0.0,2.0,99,0.01,,---,0.03,VWS V14.01,2013-05-28 15:24:00,
2013-05-28 11:25:00,56.8,56.5,30.15,East,101,0.0,2.0,99,0.01,,---,0.03,VWS V14.01,2013-05-28 15:25:00,
2013-05-28 11:27:00,56.9,56.6,30.14,East,88,0.0,2.0,99,0.01,,---,0.03,VWS V14.01,2013-05-28 15:27:00,
2013-05-28 11:28:00,56.8,56.5,30.14,East,88,1.0,2.0,99,0.01,,---,0.03,VWS V14.01,2013-05-28 15:28:00,
2013-05-28 11:29:00,56.9,56.6,30.14,East,88,0.0,2.0,99,0.01,,---,0.03,VWS V14.01,2013-05-28 15:29:00,
2013-05-28 11:31:00,56.9,56.6,30.15,ENE,71,0.0,2.0,99,0.01,,---,0.03,VWS V14.01,2013-05-28 15:31:00,
2013-05-28 11:33:00,57.3,57.0,30.14,ENE,71,0.0,2.0,99,0.01,,---,0.03,VWS V14.01,2013-05-28 15:33:00,
2013-05-28 11:34:00,57.2,56.9,30.14,ENE,71,0.0,2.0,99,0.01,,---,0.03,VWS V14.01,2013-05-28 15:34:00,
2013-05-28 11:35:00,57.2,56.9,30.14,ENE,71,0.0,0.0,99,0.00,,---,0.03,VWS V14.01,2013-05-28 15:35:00,
2013-05-28 11:36:00,57.3,57.0,30.14,ENE,71,0.0,0.0,99,0.00,,---,0.03,VWS V14.01,2013-05-28 15:36:00,
2013-05-28 11:38:00,57.4,57.1,30.14,ENE,71,0.0,0.0,99,0.00,,---,0.03,VWS V14.01,2013-05-28 15:38:00,
2013-05-28 11:39:00,57.4,57.1,30.14,ENE,71,0.0,0.0,99,0.00,,---,0.03,VWS V14.01,2013-05-28 15:39:00,
2013-05-28 11:40:00,57.5,57.2,30.14,ENE,71,0.0,0.0,99,0.00,,---,0.03,VWS V14.01,2013-05-28 15:40:00,
2013-05-28 11:41:00,57.4,57.1,30.15,ENE,71,0.0,0.0,99,0.00,,---,0.03,VWS V14.01,2013-05-28 15:41:00,
2013-05-28 11:44:00,57.4,57.1,30.15,ENE,71,0.0,0.0,99,0.00,,---,0.03,VWS V14.01,2013-05-28 15:44:00,
2013-05-28 11:45:00,57.3,57.0,30.15,ENE,71,0.0,0.0,99,0.00,,---,0.03,VWS V14.01,2013-05-28 15:45:00,
2013-05-28 11:46:00,57.4,57.1,30.15,ENE,71,0.0,0.0,99,0.00,,---,0.03,VWS V14.01,2013-05-28 15:46:00,
2013-05-28 11:47:00,57.3,57.0,30.15,ENE,71,0.0,0.0,99,0.00,,---,0.03,VWS V14.01,2013-05-28 15:47:00,
2013-05-28 11:50:00,57.3,57.0,30.15,ENE,71,0.0,0.0,99,0.00,,---,0.03,VWS V14.01,2013-05-28 15:50:00,
2013-05-28 11:52:00,57.9,57.6,30.15,ENE,71,0.0,0.0,99,0.00,,---,0.03,VWS V14.01,2013-05-28 15:52:00,
2013-05-28 11:53:00,58.1,57.8,30.15,ENE,71,0.0,0.0,99,0.00,,---,0.03,VWS V14.01,2013-05-28 15:53:00,
2013-05-28 11:55:00,58.4,58.1,30.15,ENE,71,0.0,0.0,99,0.00,,---,0.03,VWS V14.01,2013-05-28 15:55:00,
2013-05-28 11:56:00,58.3,58.0,30.15,ENE,71,0.0,0.0,99,0.00,,---,0.03,VWS V14.01,2013-05-28 15:56:00,
2013-05-28 11:57:00,58.5,58.2,30.15,ENE,71,0.0,0.0,99,0.00,,---,0.03,VWS V14.01,2013-05-28 15:57:00,
2013-05-28 11:58:00,58.6,58.3,30.15,ENE,71,0.0,0.0,99,0.00,,---,0.03,VWS V14.01,2013-05-28 15:58:00,
2013-05-28 12:00:00,58.6,58.0,30.15,ENE,71,0.0,1.0,98,0.00,,---,0.03,VWS V14.01,2013-05-28 16:00:00,
2013-05-28 12:01:00,58.5,57.9,30.14,ENE,71,0.0,1.0,98,0.00,,---,0.03,VWS V14.01,2013-05-28 16:01:00,
2013-05-28 12:02:00,58.6,58.0,30.14,ENE,71,0.0,1.0,98,0.00,,---,0.03,VWS V14.01,2013-05-28 16:02:00,
2013-05-28 12:03:00,58.7,58.1,30.14,ENE,71,0.0,1.0,98,0.00,,---,0.03,VWS V14.01,2013-05-28 16:03:00,
2013-05-28 12:05:00,58.7,58.1,30.14,ENE,72,0.0,0.0,98,0.00,,---,0.03,VWS V14.01,2013-05-28 16:05:00,
2013-05-28 12:06:00,58.7,58.1,30.14,ENE,71,0.0,0.0,98,0.00,,---,0.03,VWS V14.01,2013-05-28 16:06:00,
2013-05-28 12:07:00,58.6,58.0,30.14,East,90,0.0,2.0,98,0.00,,---,0.03,VWS V14.01,2013-05-28 16:07:00,
2013-05-28 12:08:00,58.5,57.7,30.14,East,92,0.0,2.0,97,0.00,,---,0.03,VWS V14.01,2013-05-28 16:08:00,
2013-05-28 12:09:00,58.6,57.8,30.14,North,9,0.0,2.0,97,0.00,,---,0.03,VWS V14.01,2013-05-28 16:09:00,
2013-05-28 12:10:00,58.8,58.0,30.14,North,9,0.0,2.0,97,0.00,,---,0.03,VWS V14.01,2013-05-28 16:10:00,
2013-05-28 12:11:00,59.0,58.2,30.14,North,9,0.0,2.0,97,0.00,,---,0.03,VWS V14.01,2013-05-28 16:11:00,
2013-05-28 12:13:00,59.0,58.2,30.14,North,9,0.0,2.0,97,0.00,,---,0.03,VWS V14.01,2013-05-28 16:13:00,
2013-05-28 12:15:00,59.0,58.4,30.14,North,9,0.0,2.0,98,0.00,,---,0.03,VWS V14.01,2013-05-28 16:15:00,
2013-05-28 12:16:00,59.0,58.2,30.14,NNE,19,0.0,2.0,97,0.00,,---,0.03,VWS V14.01,2013-05-28 16:16:00,
2013-05-28 12:17:00,59.0,58.2,30.14,NNE,19,0.0,2.0,97,0.00,,---,0.03,VWS V14.01,2013-05-28 16:17:00,
2013-05-28 12:18:00,59.0,58.2,30.14,NNE,19,0.0,2.0,97,0.00,,---,0.03,VWS V14.01,2013-05-28 16:18:00,
2013-05-28 12:19:00,59.0,58.2,30.14,NNE,19,0.0,2.0,97,0.00,,---,0.03,VWS V14.01,2013-05-28 16:19:00,
2013-05-28 12:20:00,59.2,58.3,30.14,NNE,19,1.0,2.0,97,0.00,,---,0.03,VWS V14.01,2013-05-28 16:20:00,
2013-05-28 12:21:00,59.6,58.8,30.14,NNE,19,0.0,2.0,97,0.00,,---,0.03,VWS V14.01,2013-05-28 16:21:00,
2013-05-28 12:22:00,59.7,58.8,30.14,NNE,19,0.0,2.0,97,0.00,,---,0.03,VWS V14.01,2013-05-28 16:22:00,
2013-05-28 12:24:00,59.8,58.7,30.14,NNE,19,1.0,2.0,96,0.00,,---,0.03,VWS V14.01,2013-05-28 16:24:00,
2013-05-28 12:25:00,59.9,58.8,30.14,NNE,19,0.0,2.0,96,0.00,,---,0.03,VWS V14.01,2013-05-28 16:25:00,
2013-05-28 12:26:00,60.0,58.9,30.14,NNE,19,0.0,2.0,96,0.00,,---,0.03,VWS V14.01,2013-05-28 16:26:00,
2013-05-28 12:27:00,60.1,59.0,30.14,NNE,19,0.0,2.0,96,0.00,,---,0.03,VWS V14.01,2013-05-28 16:27:00,
2013-05-28 12:29:00,59.9,58.5,30.14,NNE,19,0.0,2.0,95,0.00,,---,0.03,VWS V14.01,2013-05-28 16:29:00,
2013-05-28 12:30:00,59.9,58.5,30.14,NNE,19,0.0,2.0,95,0.00,,---,0.03,VWS V14.01,2013-05-28 16:30:00,
2013-05-28 12:31:00,60.0,58.9,30.14,NNE,19,0.0,2.0,96,0.00,,---,0.03,VWS V14.01,2013-05-28 16:31:00,
2013-05-28 12:33:00,60.1,59.0,30.14,NNE,19,0.0,2.0,96,0.00,,---,0.03,VWS V14.01,2013-05-28 16:33:00,
2013-05-28 12:34:00,60.2,58.8,30.14,NNE,19,0.0,2.0,95,0.00,,---,0.03,VWS V14.01,2013-05-28 16:34:00,
2013-05-28 12:35:00,60.2,58.8,30.13,NNE,19,0.0,0.0,95,0.00,,---,0.03,VWS V14.01,2013-05-28 16:35:00,
2013-05-28 12:36:00,60.3,58.9,30.13,NNE,19,0.0,0.0,95,0.00,,---,0.03,VWS V14.01,2013-05-28 16:36:00,
2013-05-28 12:37:00,60.5,59.4,30.13,NNE,19,0.0,0.0,96,0.00,,---,0.03,VWS V14.01,2013-05-28 16:37:00,
2013-05-28 12:38:00,60.7,59.3,30.13,NNE,19,0.0,0.0,95,0.00,,---,0.03,VWS V14.01,2013-05-28 16:38:00,
2013-05-28 12:39:00,60.7,59.3,30.13,NNE,19,0.0,0.0,95,0.00,,---,0.03,VWS V14.01,2013-05-28 16:39:00,
2013-05-28 12:40:00,60.7,59.3,30.13,NNE,19,0.0,0.0,95,0.00,,---,0.03,VWS V14.01,2013-05-28 16:40:00,
2013-05-28 12:41:00,60.9,59.5,30.13,NNE,19,0.0,0.0,95,0.00,,---,0.03,VWS V14.01,2013-05-28 16:41:00,
2013-05-28 12:42:00,61.1,59.7,30.13,NNE,19,0.0,0.0,95,0.00,,---,0.03,VWS V14.01,2013-05-28 16:42:00,
2013-05-28 12:44:00,61.2,59.8,30.13,NNE,19,0.0,0.0,95,0.00,,---,0.03,VWS V14.01,2013-05-28 16:44:00,
2013-05-28 12:45:00,61.2,59.8,30.13,NNE,19,0.0,0.0,95,0.00,,---,0.03,VWS V14.01,2013-05-28 16:45:00,
2013-05-28 12:47:00,61.4,59.7,30.13,NE,56,1.0,2.0,94,0.00,,---,0.03,VWS V14.01,2013-05-28 16:47:00,
2013-05-28 12:48:00,61.4,59.7,30.13,ENE,63,1.0,2.0,94,0.00,,---,0.03,VWS V14.01,2013-05-28 16:48:00,
2013-05-28 12:50:00,61.6,60.2,30.13,ENE,74,0.0,2.0,95,0.00,,---,0.03,VWS V14.01,2013-05-28 16:50:00,
2013-05-28 12:52:00,61.9,60.2,30.13,NNE,15,4.0,4.0,94,0.00,,---,0.03,VWS V14.01,2013-05-28 16:52:00,
2013-05-28 12:53:00,61.8,60.1,30.13,NNE,15,1.0,4.0,94,0.00,,---,0.03,VWS V14.01,2013-05-28 16:53:00,
2013-05-28 12:55:00,61.8,59.8,30.13,NNE,15,0.0,4.0,93,0.00,,---,0.03,VWS V14.01,2013-05-28 16:55:00,
2013-05-28 12:56:00,62.0,60.3,30.13,NNE,15,0.0,4.0,94,0.00,,---,0.03,VWS V14.01,2013-05-28 16:56:00,
2013-05-28 12:58:00,62.1,60.4,30.13,NNE,14,0.0,4.0,94,0.00,,---,0.03,VWS V14.01,2013-05-28 16:58:00,
2013-05-28 13:00:00,62.2,60.2,30.13,NNE,14,0.0,4.0,93,0.00,,---,0.03,VWS V14.01,2013-05-28 17:00:00,
2013-05-28 13:01:00,62.2,60.2,30.13,NNE,15,0.0,4.0,93,0.00,,---,0.03,VWS V14.01,2013-05-28 17:01:00,
2013-05-28 13:03:00,62.2,60.2,30.13,NNE,14,0.0,4.0,93,0.00,,---,0.03,VWS V14.01,2013-05-28 17:03:00,
2013-05-28 13:06:00,62.2,60.5,30.13,NNE,15,1.0,1.0,94,0.00,,---,0.03,VWS V14.01,2013-05-28 17:06:00,
2013-05-28 13:07:00,62.3,60.2,30.13,NNE,15,0.0,1.0,93,0.00,,---,0.03,VWS V14.01,2013-05-28 17:07:00,
2013-05-28 13:08:00,62.4,60.3,30.13,NNE,15,0.0,1.0,93,0.00,,---,0.03,VWS V14.01,2013-05-28 17:08:00,
2013-05-28 13:09:00,62.5,60.8,30.13,NNE,15,2.0,2.0,94,0.00,,---,0.03,VWS V14.01,2013-05-28 17:09:00,
2013-05-28 13:11:00,62.9,60.8,30.13,NNE,15,1.0,3.0,93,0.00,,---,0.03,VWS V14.01,2013-05-28 17:11:00,
2013-05-28 13:12:00,63.2,61.2,30.13,North,11,1.0,3.0,93,0.00,,---,0.03,VWS V14.01,2013-05-28 17:12:00,
2013-05-28 13:13:00,63.2,61.2,30.13,North,11,0.0,3.0,93,0.00,,---,0.03,VWS V14.01,2013-05-28 17:13:00,
2013-05-28 13:14:00,63.2,60.8,30.13,North,11,0.0,3.0,92,0.00,,---,0.03,VWS V14.01,2013-05-28 17:14:00,
2013-05-28 13:16:00,63.3,60.9,30.13,North,11,0.0,3.0,92,0.00,,---,0.03,VWS V14.01,2013-05-28 17:16:00,
2013-05-28 13:18:00,63.4,61.0,30.13,North,11,0.0,3.0,92,0.00,,---,0.03,VWS V14.01,2013-05-28 17:18:00,
2013-05-28 13:19:00,63.5,61.1,30.13,North,11,2.0,3.0,92,0.00,,---,0.03,VWS V14.01,2013-05-28 17:19:00,
2013-05-28 13:21:00,63.9,61.5,30.13,NNE,17,0.0,3.0,92,0.00,,---,0.03,VWS V14.01,2013-05-28 17:21:00,
2013-05-28 13:22:00,64.0,61.6,30.13,NNE,17,0.0,3.0,92,0.00,,---,0.03,VWS V14.01,2013-05-28 17:22:00,
2013-05-28 13:24:00,64.2,61.5,30.13,NNE,17,0.0,3.0,91,0.00,,---,0.03,VWS V14.01,2013-05-28 17:24:00,
2013-05-28 13:25:00,64.2,61.2,30.13,NNE,17,0.0,3.0,90,0.00,,---,0.03,VWS V14.01,2013-05-28 17:25:00,
2013-05-28 13:26:00,64.3,61.3,30.13,NNE,17,0.0,3.0,90,0.00,,---,0.03,VWS V14.01,2013-05-28 17:26:00,
2013-05-28 13:28:00,64.6,61.6,30.13,NNE,17,0.0,3.0,90,0.00,,---,0.03,VWS V14.01,2013-05-28 17:28:00,
2013-05-28 13:29:00,64.8,62.1,30.13,NNE,17,0.0,3.0,91,0.00,,---,0.03,VWS V14.01,2013-05-28 17:29:00,
2013-05-28 13:30:00,64.9,62.2,30.13,NNE,17,0.0,3.0,91,0.00,,---,0.03,VWS V14.01,2013-05-28 17:30:00,
2013-05-28 13:32:00,65.0,61.7,30.13,NNE,17,0.0,3.0,89,0.00,,---,0.03,VWS V14.01,2013-05-28 17:32:00,
2013-05-28 13:33:00,65.2,61.9,30.13,NE,38,4.0,4.0,89,0.00,,---,0.03,VWS V14.01,2013-05-28 17:33:00,
2013-05-28 13:34:00,65.1,61.5,30.13,NNE,32,1.0,1.0,88,0.00,,---,0.03,VWS V14.01,2013-05-28 17:34:00,
2013-05-28 13:36:00,65.2,61.9,30.13,NNE,32,0.0,1.0,89,0.00,,---,0.03,VWS V14.01,2013-05-28 17:36:00,
2013-05-28 13:37:00,65.3,61.7,30.13,ESE,105,0.0,3.0,88,0.00,,---,0.03,VWS V14.01,2013-05-28 17:37:00,
2013-05-28 13:38:00,65.3,61.7,30.13,ESE,105,0.0,3.0,88,0.00,,---,0.03,VWS V14.01,2013-05-28 17:38:00,
2013-05-28 13:40:00,65.2,61.6,30.13,NE,49,0.0,3.0,88,0.00,,---,0.03,VWS V14.01,2013-05-28 17:40:00,
2013-05-28 13:41:00,65.3,62.0,30.13,NE,49,0.0,3.0,89,0.00,,---,0.03,VWS V14.01,2013-05-28 17:41:00,
2013-05-28 13:42:00,65.2,61.9,30.13,NE,42,1.0,3.0,89,0.00,,---,0.03,VWS V14.01,2013-05-28 17:42:00,
2013-05-28 13:44:00,65.0,61.4,30.13,NE,34,4.0,4.0,88,0.00,,---,0.03,VWS V14.01,2013-05-28 17:44:00,
2013-05-28 13:45:00,65.0,61.4,30.13,NE,36,0.0,4.0,88,0.00,,---,0.03,VWS V14.01,2013-05-28 17:45:00,
2013-05-28 13:46:00,65.0,61.4,30.13,NE,34,0.0,4.0,88,0.00,,---,0.03,VWS V14.01,2013-05-28 17:46:00,
2013-05-28 13:47:00,65.0,61.4,30.13,NE,35,0.0,4.0,88,0.00,,---,0.03,VWS V14.01,2013-05-28 17:47:00,
2013-05-28 13:48:00,65.2,61.9,30.13,NNE,33,0.0,4.0,89,0.00,,---,0.03,VWS V14.01,2013-05-28 17:48:00,
2013-05-28 13:50:00,65.6,62.0,30.13,NE,38,0.0,4.0,88,0.00,,---,0.03,VWS V14.01,2013-05-28 17:50:00,
2013-05-28 13:52:00,65.9,62.2,30.13,NNE,21,1.0,4.0,88,0.00,,---,0.03,VWS V14.01,2013-05-28 17:52:00,
2013-05-28 13:53:00,66.0,62.3,30.13,NNE,26,5.0,5.0,88,0.00,,---,0.03,VWS V14.01,2013-05-28 17:53:00,
2013-05-28 13:56:00,66.1,62.5,30.12,North,360,0.0,5.0,88,0.00,,---,0.03,VWS V14.01,2013-05-28 17:56:00,
2013-05-28 13:57:00,66.7,63.7,30.13,North,360,0.0,5.0,90,0.00,,---,0.03,VWS V14.01,2013-05-28 17:57:00,
2013-05-28 13:58:00,67.3,63.0,30.13,North,360,0.0,5.0,86,0.00,,---,0.03,VWS V14.01,2013-05-28 17:58:00,
2013-05-28 14:01:00,67.6,63.6,30.13,North,360,0.0,5.0,87,0.00,,---,0.03,VWS V14.01,2013-05-28 18:01:00,
2013-05-28 14:02:00,67.9,63.9,30.12,North,360,0.0,5.0,87,0.00,,---,0.03,VWS V14.01,2013-05-28 18:02:00,
2013-05-28 14:03:00,68.5,63.5,30.12,NE,42,2.0,5.0,84,0.00,,---,0.03,VWS V14.01,2013-05-28 18:03:00,
2013-05-28 14:04:00,68.3,63.3,30.12,NE,42,0.0,5.0,84,0.00,,---,0.03,VWS V14.01,2013-05-28 18:04:00,
2013-05-28 14:06:00,67.9,62.9,30.13,NE,44,0.0,1.0,84,0.00,,---,0.03,VWS V14.01,2013-05-28 18:06:00,
2013-05-28 14:07:00,67.8,62.8,30.13,NE,42,0.0,1.0,84,0.00,,---,0.03,VWS V14.01,2013-05-28 18:07:00,
2013-05-28 14:09:00,67.5,62.5,30.13,NE,43,0.0,1.0,84,0.00,,---,0.03,VWS V14.01,2013-05-28 18:09:00,
2013-05-28 14:11:00,67.2,62.9,30.13,NE,43,0.0,1.0,86,0.00,,---,0.03,VWS V14.01,2013-05-28 18:11:00,
2013-05-28 14:12:00,67.2,62.9,30.13,NE,43,0.0,1.0,86,0.00,,---,0.03,VWS V14.01,2013-05-28 18:12:00,
2013-05-28 14:13:00,67.6,63.9,30.13,NE,42,0.0,1.0,88,0.00,,---,0.03,VWS V14.01,2013-05-28 18:13:00,
2013-05-28 14:14:00,68.0,63.3,30.12,NE,43,0.0,1.0,85,0.00,,---,0.03,VWS V14.01,2013-05-28 18:14:00,
2013-05-28 14:15:00,68.0,63.3,30.13,NE,43,0.0,1.0,85,0.00,,---,0.03,VWS V14.01,2013-05-28 18:15:00,
2013-05-28 14:16:00,68.1,63.8,30.12,NNE,30,1.0,3.0,86,0.00,,---,0.03,VWS V14.01,2013-05-28 18:16:00,
2013-05-28 14:17:00,68.1,63.4,30.12,NNE,30,0.0,3.0,85,0.00,,---,0.03,VWS V14.01,2013-05-28 18:17:00,
2013-05-28 14:18:00,68.1,63.4,30.12,NNE,30,0.0,3.0,85,0.00,,---,0.03,VWS V14.01,2013-05-28 18:18:00,
2013-05-28 14:19:00,68.2,63.5,30.12,NNE,30,0.0,3.0,85,0.00,,---,0.03,VWS V14.01,2013-05-28 18:19:00,
2013-05-28 14:20:00,68.3,63.3,30.12,NNE,31,0.0,3.0,84,0.00,,---,0.03,VWS V14.01,2013-05-28 18:20:00,
2013-05-28 14:22:00,67.9,62.9,30.13,NNE,23,1.0,3.0,84,0.00,,---,0.03,VWS V14.01,2013-05-28 18:22:00,
2013-05-28 14:23:00,67.7,62.7,30.13,NNE,23,0.0,3.0,84,0.00,,---,0.03,VWS V14.01,2013-05-28 18:23:00,
2013-05-28 14:24:00,67.5,62.8,30.13,NNE,23,0.0,3.0,85,0.00,,---,0.03,VWS V14.01,2013-05-28 18:24:00,
2013-05-28 14:25:00,67.4,62.7,30.13,NNE,23,0.0,3.0,85,0.00,,---,0.03,VWS V14.01,2013-05-28 18:25:00,
2013-05-28 14:27:00,67.4,63.1,30.13,NNE,23,0.0,3.0,86,0.00,,---,0.03,VWS V14.01,2013-05-28 18:27:00,
2013-05-28 14:29:00,67.3,63.3,30.12,NNE,23,0.0,3.0,87,0.00,,---,0.03,VWS V14.01,2013-05-28 18:29:00,
2013-05-28 14:30:00,67.4,63.4,30.12,NNE,23,0.0,3.0,87,0.00,,---,0.03,VWS V14.01,2013-05-28 18:30:00,
2013-05-28 14:31:00,67.4,63.4,30.12,NNE,23,0.0,3.0,87,0.00,,---,0.03,VWS V14.01,2013-05-28 18:31:00,
2013-05-28 14:32:00,67.8,63.8,30.12,NNE,24,1.0,3.0,87,0.00,,---,0.03,VWS V14.01,2013-05-28 18:32:00,
2013-05-28 14:33:00,67.7,63.0,30.12,NNE,24,1.0,3.0,85,0.00,,---,0.03,VWS V14.01,2013-05-28 18:33:00,
2013-05-28 14:35:00,67.8,63.5,30.12,NNE,24,0.0,0.0,86,0.00,,---,0.03,VWS V14.01,2013-05-28 18:35:00,
2013-05-28 14:36:00,68.5,64.2,30.12,NNE,24,0.0,0.0,86,0.00,,---,0.03,VWS V14.01,2013-05-28 18:36:00,
2013-05-28 14:38:00,69.0,64.6,30.11,NNE,24,0.0,0.0,86,0.00,,---,0.03,VWS V14.01,2013-05-28 18:38:00,
2013-05-28 14:40:00,69.0,64.0,30.11,NNE,33,0.0,0.0,84,0.00,,---,0.03,VWS V14.01,2013-05-28 18:40:00,
2013-05-28 14:42:00,69.0,64.0,30.11,ENE,57,1.0,3.0,84,0.00,,---,0.03,VWS V14.01,2013-05-28 18:42:00,
2013-05-28 14:43:00,68.9,63.9,30.11,ENE,59,0.0,3.0,84,0.00,,---,0.03,VWS V14.01,2013-05-28 18:43:00,
2013-05-28 14:45:00,68.9,63.9,30.11,ENE,59,0.0,3.0,84,0.00,,---,0.03,VWS V14.01,2013-05-28 18:45:00,
2013-05-28 14:48:00,69.7,65.0,30.11,ENE,59,0.0,3.0,85,0.00,,---,0.03,VWS V14.01,2013-05-28 18:48:00,
2013-05-28 14:49:00,69.8,65.1,30.11,ENE,59,0.0,3.0,85,0.00,,---,0.03,VWS V14.01,2013-05-28 18:49:00,
2013-05-28 14:50:00,70.2,65.5,30.11,ENE,60,0.0,3.0,85,0.00,,---,0.03,VWS V14.01,2013-05-28 18:50:00,
2013-05-28 14:51:00,70.3,65.6,30.11,ENE,60,0.0,3.0,85,0.00,,---,0.03,VWS V14.01,2013-05-28 18:51:00,
2013-05-28 14:53:00,70.5,64.8,30.10,ENE,68,0.0,3.0,82,0.00,,---,0.03,VWS V14.01,2013-05-28 18:53:00,
2013-05-28 14:54:00,70.5,64.8,30.10,ENE,68,0.0,3.0,82,0.00,,---,0.03,VWS V14.01,2013-05-28 18:54:00,
2013-05-28 14:55:00,70.2,64.8,30.11,ENE,64,0.0,3.0,83,0.00,,---,0.03,VWS V14.01,2013-05-28 18:55:00,
2013-05-28 14:56:00,70.3,64.9,30.10,ENE,64,0.0,3.0,83,0.00,,---,0.03,VWS V14.01,2013-05-28 18:56:00,
2013-05-28 14:59:00,70.7,65.6,30.10,ENE,64,0.0,3.0,84,0.00,,---,0.03,VWS V14.01,2013-05-28 18:59:00,
2013-05-28 15:01:00,70.8,65.0,30.10,ENE,67,0.0,3.0,82,0.00,,---,0.03,VWS V14.01,2013-05-28 19:01:00,
2013-05-28 15:04:00,70.3,64.6,30.10,ENE,65,0.0,3.0,82,0.00,,---,0.03,VWS V14.01,2013-05-28 19:04:00,
2013-05-28 15:05:00,70.3,64.9,30.10,NNE,28,0.0,2.0,83,0.00,,---,0.03,VWS V14.01,2013-05-28 19:05:00,
2013-05-28 15:06:00,70.7,66.0,30.10,NNE,28,0.0,2.0,85,0.00,,---,0.03,VWS V14.01,2013-05-28 19:06:00,
2013-05-28 15:07:00,70.8,65.7,30.10,ENE,72,3.0,3.0,84,0.00,,---,0.03,VWS V14.01,2013-05-28 19:07:00,
2013-05-28 15:09:00,70.8,65.4,30.10,ENE,76,0.0,3.0,83,0.00,,---,0.03,VWS V14.01,2013-05-28 19:09:00,
2013-05-28 15:10:00,70.8,65.7,30.10,ENE,76,0.0,3.0,84,0.00,,---,0.03,VWS V14.01,2013-05-28 19:10:00,
2013-05-28 15:11:00,70.6,65.2,30.10,East,98,0.0,3.0,83,0.00,,---,0.03,VWS V14.01,2013-05-28 19:11:00,
2013-05-28 15:12:00,70.5,65.1,30.10,East,98,0.0,3.0,83,0.00,,---,0.03,VWS V14.01,2013-05-28 19:12:00,
2013-05-28 15:14:00,70.5,65.1,30.10,ESE,112,0.0,3.0,83,0.00,,---,0.03,VWS V14.01,2013-05-28 19:14:00,
2013-05-28 15:15:00,70.6,65.5,30.10,ESE,112,0.0,3.0,84,0.00,,---,0.03,VWS V14.01,2013-05-28 19:15:00,
2013-05-28 15:16:00,70.6,65.2,30.10,NE,52,0.0,3.0,83,0.00,,---,0.03,VWS V14.01,2013-05-28 19:16:00,
2013-05-28 15:17:00,70.5,65.1,30.10,ENE,63,1.0,3.0,83,0.00,,---,0.03,VWS V14.01,2013-05-28 19:17:00,
2013-05-28 15:19:00,70.5,65.1,30.10,NNE,26,0.0,3.0,83,0.00,,---,0.03,VWS V14.01,2013-05-28 19:19:00,
2013-05-28 15:20:00,70.4,65.0,30.10,ENE,71,3.0,3.0,83,0.00,,---,0.03,VWS V14.01,2013-05-28 19:20:00,
2013-05-28 15:21:00,70.4,64.7,30.10,ENE,76,2.0,3.0,82,0.00,,---,0.03,VWS V14.01,2013-05-28 19:21:00,
2013-05-28 15:22:00,70.1,64.4,30.10,SE,135,0.0,3.0,82,0.00,,---,0.03,VWS V14.01,2013-05-28 19:22:00,
2013-05-28 15:25:00,69.4,64.4,30.10,East,80,0.0,4.0,84,0.00,,---,0.03,VWS V14.01,2013-05-28 19:25:00,
2013-05-28 15:26:00,69.4,64.4,30.10,ENE,77,0.0,4.0,84,0.00,,---,0.03,VWS V14.01,2013-05-28 19:26:00,
2013-05-28 15:27:00,69.8,65.1,30.10,ENE,77,0.0,4.0,85,0.00,,---,0.03,VWS V14.01,2013-05-28 19:27:00,
2013-05-28 15:28:00,70.1,65.4,30.10,ENE,76,0.0,4.0,85,0.00,,---,0.03,VWS V14.01,2013-05-28 19:28:00,
2013-05-28 15:30:00,70.7,65.6,30.09,East,96,0.0,4.0,84,0.00,,---,0.03,VWS V14.01,2013-05-28 19:30:00,
2013-05-28 15:31:00,70.8,65.4,30.09,East,96,0.0,4.0,83,0.00,,---,0.03,VWS V14.01,2013-05-28 19:31:00,
2013-05-28 15:32:00,70.7,65.3,30.10,East,95,0.0,4.0,83,0.00,,---,0.03,VWS V14.01,2013-05-28 19:32:00,
2013-05-28 15:33:00,70.6,65.2,30.10,ENE,69,1.0,4.0,83,0.00,,---,0.03,VWS V14.01,2013-05-28 19:33:00,
2013-05-28 15:36:00,70.1,64.4,30.10,East,82,0.0,3.0,82,0.00,,---,0.03,VWS V14.01,2013-05-28 19:36:00,
2013-05-28 15:37:00,69.8,64.4,30.10,East,92,0.0,3.0,83,0.00,,---,0.03,VWS V14.01,2013-05-28 19:37:00,
2013-05-28 15:39:00,70.1,65.4,30.10,ESE,111,3.0,3.0,85,0.00,,---,0.03,VWS V14.01,2013-05-28 19:39:00,
2013-05-28 15:41:00,70.4,65.7,30.10,ENE,61,0.0,3.0,85,0.00,,---,0.03,VWS V14.01,2013-05-28 19:41:00,
2013-05-28 15:42:00,71.0,66.3,30.10,NNE,29,0.0,3.0,85,0.00,,---,0.03,VWS V14.01,2013-05-28 19:42:00,
2013-05-28 15:44:00,71.2,66.1,30.10,NE,42,0.0,3.0,84,0.00,,---,0.03,VWS V14.01,2013-05-28 19:44:00,
2013-05-28 15:46:00,71.3,65.5,30.10,NE,39,2.0,3.0,82,0.00,,---,0.03,VWS V14.01,2013-05-28 19:46:00,
2013-05-28 15:47:00,71.3,65.9,30.10,ESE,109,0.0,3.0,83,0.00,,---,0.03,VWS V14.01,2013-05-28 19:47:00,
2013-05-28 15:48:00,71.4,66.0,30.10,ESE,109,0.0,3.0,83,0.00,,---,0.03,VWS V14.01,2013-05-28 19:48:00,
2013-05-28 15:49:00,71.5,65.7,30.10,NNE,18,0.0,3.0,82,0.00,,---,0.03,VWS V14.01,2013-05-28 19:49:00,
2013-05-28 15:51:00,71.7,66.3,30.10,NNE,13,0.0,3.0,83,0.00,,---,0.03,VWS V14.01,2013-05-28 19:51:00,
2013-05-28 15:52:00,71.7,66.3,30.10,NNE,13,0.0,3.0,83,0.00,,---,0.03,VWS V14.01,2013-05-28 19:52:00,
2013-05-28 15:53:00,72.0,65.9,30.10,East,88,2.0,3.0,81,0.00,,---,0.03,VWS V14.01,2013-05-28 19:53:00,
2013-05-28 15:54:00,71.9,66.1,30.10,NE,46,0.0,5.0,82,0.00,,---,0.03,VWS V14.01,2013-05-28 19:54:00,
2013-05-28 15:56:00,71.8,65.3,30.10,NE,39,0.0,5.0,80,0.00,,---,0.03,VWS V14.01,2013-05-28 19:56:00,
2013-05-28 15:57:00,71.8,65.3,30.10,NE,39,0.0,5.0,80,0.00,,---,0.03,VWS V14.01,2013-05-28 19:57:00,
2013-05-28 15:58:00,71.6,65.5,30.10,ESE,113,1.0,5.0,81,0.00,,---,0.03,VWS V14.01,2013-05-28 19:58:00,
2013-05-28 16:01:00,71.3,65.5,30.10,NE,55,0.0,5.0,82,0.00,,---,0.03,VWS V14.01,2013-05-28 20:01:00,
2013-05-28 16:02:00,71.1,65.0,30.09,ENE,64,0.0,5.0,81,0.00,,---,0.03,VWS V14.01,2013-05-28 20:02:00,
2013-05-28 16:03:00,71.1,65.0,30.09,ENE,64,0.0,5.0,81,0.00,,---,0.03,VWS V14.01,2013-05-28 20:03:00,
2013-05-28 16:04:00,71.3,65.9,30.09,ENE,64,0.0,5.0,83,0.00,,---,0.03,VWS V14.01,2013-05-28 20:04:00,
2013-05-28 16:06:00,71.3,65.5,30.09,NNE,20,0.0,4.0,82,0.00,,---,0.03,VWS V14.01,2013-05-28 20:06:00,
2013-05-28 16:07:00,71.3,65.5,30.09,NE,38,0.0,4.0,82,0.00,,---,0.03,VWS V14.01,2013-05-28 20:07:00,
2013-05-28 16:08:00,71.3,65.5,30.10,NE,40,0.0,4.0,82,0.00,,---,0.03,VWS V14.01,2013-05-28 20:08:00,
2013-05-28 16:09:00,71.5,65.7,30.09,NE,41,0.0,4.0,82,0.00,,---,0.03,VWS V14.01,2013-05-28 20:09:00,
2013-05-28 16:12:00,71.2,65.1,30.10,East,90,0.0,4.0,81,0.00,,---,0.03,VWS V14.01,2013-05-28 20:12:00,
2013-05-28 16:13:00,71.1,65.3,30.09,ENE,65,0.0,4.0,82,0.00,,---,0.03,VWS V14.01,2013-05-28 20:13:00,
2013-05-28 16:14:00,70.9,64.8,30.09,SE,128,0.0,4.0,81,0.00,,---,0.03,VWS V14.01,2013-05-28 20:14:00,
2013-05-28 16:17:00,70.8,65.0,30.09,NE,36,0.0,4.0,82,0.00,,---,0.03,VWS V14.01,2013-05-28 20:17:00,
2013-05-28 16:18:00,70.8,65.4,30.09,NNE,21,0.0,4.0,83,0.00,,---,0.03,VWS V14.01,2013-05-28 20:18:00,
2013-05-28 16:19:00,70.8,65.0,30.09,NNE,29,0.0,4.0,82,0.00,,---,0.03,VWS V14.01,2013-05-28 20:19:00,
2013-05-28 16:20:00,70.7,64.9,30.09,NNE,29,0.0,4.0,82,0.00,,---,0.03,VWS V14.01,2013-05-28 20:20:00,
2013-05-28 16:22:00,70.4,65.0,30.09,ENE,64,0.0,4.0,83,0.00,,---,0.03,VWS V14.01,2013-05-28 20:22:00,
2013-05-28 16:23:00,70.4,65.0,30.09,East,83,0.0,4.0,83,0.00,,---,0.03,VWS V14.01,2013-05-28 20:23:00,
2013-05-28 16:24:00,70.5,65.4,30.09,NE,40,0.0,4.0,84,0.00,,---,0.03,VWS V14.01,2013-05-28 20:24:00,
2013-05-28 16:25:00,70.5,65.4,30.09,NE,40,0.0,4.0,84,0.00,,---,0.03,VWS V14.01,2013-05-28 20:25:00,
2013-05-28 16:27:00,70.8,65.7,30.09,ENE,66,0.0,4.0,84,0.00,,---,0.03,VWS V14.01,2013-05-28 20:27:00,
2013-05-28 16:28:00,70.9,65.8,30.09,ENE,66,0.0,4.0,84,0.00,,---,0.03,VWS V14.01,2013-05-28 20:28:00,
2013-05-28 16:29:00,71.0,65.9,30.09,ENE,66,0.0,4.0,84,0.00,,---,0.03,VWS V14.01,2013-05-28 20:29:00,
2013-05-28 16:30:00,70.8,65.4,30.09,North,5,2.0,4.0,83,0.00,,---,0.03,VWS V14.01,2013-05-28 20:30:00,
2013-05-28 16:32:00,70.9,65.5,30.09,North,9,0.0,4.0,83,0.00,,---,0.03,VWS V14.01,2013-05-28 20:32:00,
2013-05-28 16:33:00,70.7,65.3,30.09,ESE,107,1.0,4.0,83,0.00,,---,0.03,VWS V14.01,2013-05-28 20:33:00,
2013-05-28 16:34:00,70.6,65.2,30.09,ESE,106,0.0,4.0,83,0.00,,---,0.03,VWS V14.01,2013-05-28 20:34:00,
2013-05-28 16:35:00,70.6,65.5,30.09,ESE,106,0.0,0.0,84,0.00,,---,0.03,VWS V14.01,2013-05-28 20:35:00,
2013-05-28 16:38:00,70.9,65.8,30.09,East,79,0.0,1.0,84,0.00,,---,0.03,VWS V14.01,2013-05-28 20:38:00,
2013-05-28 16:39:00,71.1,66.0,30.09,East,79,0.0,1.0,84,0.00,,---,0.03,VWS V14.01,2013-05-28 20:39:00,
2013-05-28 16:40:00,71.3,66.2,30.09,East,80,0.0,1.0,84,0.00,,---,0.03,VWS V14.01,2013-05-28 20:40:00,
2013-05-28 16:43:00,71.3,65.9,30.09,East,96,2.0,4.0,83,0.00,,---,0.03,VWS V14.01,2013-05-28 20:43:00,
2013-05-28 16:44:00,71.3,65.9,30.09,East,94,0.0,4.0,83,0.00,,---,0.03,VWS V14.01,2013-05-28 20:44:00,
2013-05-28 16:45:00,71.2,65.8,30.09,East,94,0.0,4.0,83,0.00,,---,0.03,VWS V14.01,2013-05-28 20:45:00,
2013-05-28 16:46:00,71.1,65.7,30.09,East,94,0.0,4.0,83,0.00,,---,0.03,VWS V14.01,2013-05-28 20:46:00,
2013-05-28 16:49:00,70.7,65.3,30.09,ENE,57,1.0,4.0,83,0.00,,---,0.03,VWS V14.01,2013-05-28 20:49:00,
2013-05-28 16:50:00,70.7,65.3,30.09,ENE,59,0.0,4.0,83,0.00,,---,0.03,VWS V14.01,2013-05-28 20:50:00,
2013-05-28 16:51:00,70.8,65.4,30.09,ENE,59,0.0,4.0,83,0.00,,---,0.03,VWS V14.01,2013-05-28 20:51:00,
2013-05-28 16:54:00,70.9,65.5,30.09,ENE,65,0.0,4.0,83,0.00,,---,0.03,VWS V14.01,2013-05-28 20:54:00,
2013-05-28 16:55:00,70.8,65.4,30.09,ENE,65,0.0,4.0,83,0.00,,---,0.03,VWS V14.01,2013-05-28 20:55:00,
2013-05-28 16:56:00,71.0,65.9,30.09,ENE,66,0.0,4.0,84,0.00,,---,0.03,VWS V14.01,2013-05-28 20:56:00,
2013-05-28 16:59:00,70.5,65.1,30.09,ENE,78,0.0,4.0,83,0.00,,---,0.03,VWS V14.01,2013-05-28 20:59:00,
2013-05-28 17:00:00,70.3,65.2,30.09,ENE,78,0.0,4.0,84,0.00,,---,0.03,VWS V14.01,2013-05-28 21:00:00,
2013-05-28 17:01:00,70.3,65.6,30.09,ENE,78,0.0,4.0,85,0.00,,---,0.03,VWS V14.01,2013-05-28 21:01:00,
2013-05-28 17:04:00,70.2,65.5,30.09,ENE,78,0.0,4.0,85,0.00,,---,0.03,VWS V14.01,2013-05-28 21:04:00,
2013-05-28 17:06:00,70.2,65.5,30.09,ENE,78,0.0,0.0,85,0.00,,---,0.03,VWS V14.01,2013-05-28 21:06:00,
2013-05-28 17:09:00,70.6,65.5,30.09,ENE,78,0.0,0.0,84,0.00,,---,0.03,VWS V14.01,2013-05-28 21:09:00,
2013-05-28 17:11:00,70.6,65.5,30.09,ENE,78,0.0,0.0,84,0.00,,---,0.03,VWS V14.01,2013-05-28 21:11:00,
2013-05-28 17:14:00,70.8,65.4,30.09,ESE,103,0.0,5.0,83,0.00,,---,0.03,VWS V14.01,2013-05-28 21:14:00,
2013-05-28 17:15:00,70.8,65.4,30.09,East,101,0.0,5.0,83,0.00,,---,0.03,VWS V14.01,2013-05-28 21:15:00,
2013-05-28 17:16:00,70.8,65.7,30.09,ESE,102,1.0,5.0,84,0.00,,---,0.03,VWS V14.01,2013-05-28 21:16:00,
2013-05-28 17:17:00,70.8,65.4,30.09,ESE,102,0.0,5.0,83,0.00,,---,0.03,VWS V14.01,2013-05-28 21:17:00,
2013-05-28 17:20:00,70.6,65.5,30.09,ESE,102,0.0,5.0,84,0.00,,---,0.03,VWS V14.01,2013-05-28 21:20:00,
2013-05-28 17:22:00,70.6,65.5,30.09,ESE,102,0.0,5.0,84,0.00,,---,0.03,VWS V14.01,2013-05-28 21:22:00,
2013-05-28 17:23:00,70.9,65.8,30.09,East,91,0.0,5.0,84,0.00,,---,0.03,VWS V14.01,2013-05-28 21:23:00,
2013-05-28 17:25:00,71.3,65.9,30.09,East,94,0.0,5.0,83,0.00,,---,0.03,VWS V14.01,2013-05-28 21:25:00,
2013-05-28 17:27:00,71.5,66.1,30.09,East,94,0.0,5.0,83,0.00,,---,0.03,VWS V14.01,2013-05-28 21:27:00,
2013-05-28 17:28:00,71.8,66.0,30.09,East,94,0.0,5.0,82,0.00,,---,0.03,VWS V14.01,2013-05-28 21:28:00,
2013-05-28 17:30:00,72.1,65.9,30.09,East,95,4.0,5.0,81,0.00,,---,0.03,VWS V14.01,2013-05-28 21:30:00,
2013-05-28 17:31:00,72.2,66.1,30.09,ENE,61,3.0,5.0,81,0.00,,---,0.03,VWS V14.01,2013-05-28 21:31:00,
2013-05-28 17:32:00,72.4,66.2,30.09,NE,55,0.0,5.0,81,0.00,,---,0.03,VWS V14.01,2013-05-28 21:32:00,
2013-05-28 17:33:00,72.5,66.0,30.09,East,95,2.0,5.0,80,0.00,,---,0.03,VWS V14.01,2013-05-28 21:33:00,
2013-05-28 17:36:00,72.2,65.7,30.09,ESE,111,0.0,4.0,80,0.00,,---,0.03,VWS V14.01,2013-05-28 21:36:00,
2013-05-28 17:37:00,72.1,65.9,30.09,East,91,0.0,4.0,81,0.00,,---,0.03,VWS V14.01,2013-05-28 21:37:00,
2013-05-28 17:38:00,72.1,65.9,30.09,East,91,0.0,4.0,81,0.00,,---,0.03,VWS V14.01,2013-05-28 21:38:00,
2013-05-28 17:41:00,71.8,65.3,30.09,ENE,78,0.0,4.0,80,0.00,,---,0.03,VWS V14.01,2013-05-28 21:41:00,
2013-05-28 17:42:00,71.6,65.5,30.09,ENE,78,0.0,4.0,81,0.00,,---,0.03,VWS V14.01,2013-05-28 21:42:00,
2013-05-28 17:43:00,71.4,65.3,30.09,ENE,78,0.0,4.0,81,0.00,,---,0.03,VWS V14.01,2013-05-28 21:43:00,
2013-05-28 17:44:00,71.3,65.5,30.09,ENE,78,0.0,4.0,82,0.00,,---,0.03,VWS V14.01,2013-05-28 21:44:00,
2013-05-28 17:46:00,71.1,65.3,30.09,ENE,78,0.0,4.0,82,0.00,,---,0.03,VWS V14.01,2013-05-28 21:46:00,
2013-05-28 17:47:00,71.1,65.3,30.08,ENE,78,0.0,4.0,82,0.00,,---,0.03,VWS V14.01,2013-05-28 21:47:00,
2013-05-28 17:48:00,71.1,65.3,30.08,ENE,78,0.0,4.0,82,0.00,,---,0.03,VWS V14.01,2013-05-28 21:48:00,
2013-05-28 17:49:00,71.1,65.7,30.09,ENE,78,1.0,4.0,83,0.00,,---,0.03,VWS V14.01,2013-05-28 21:49:00,
2013-05-28 17:52:00,71.0,65.6,30.09,ENE,78,0.0,4.0,83,0.00,,---,0.03,VWS V14.01,2013-05-28 21:52:00,
2013-05-28 17:53:00,71.0,65.9,30.09,ENE,78,0.0,4.0,84,0.00,,---,0.03,VWS V14.01,2013-05-28 21:53:00,
2013-05-28 17:54:00,70.9,65.5,30.09,ENE,78,0.0,4.0,83,0.00,,---,0.03,VWS V14.01,2013-05-28 21:54:00,
2013-05-28 17:55:00,70.9,65.8,30.09,ENE,78,0.0,4.0,84,0.00,,---,0.03,VWS V14.01,2013-05-28 21:55:00,
2013-05-28 17:57:00,70.8,65.4,30.09,ENE,78,0.0,4.0,83,0.00,,---,0.03,VWS V14.01,2013-05-28 21:57:00,
2013-05-28 17:58:00,70.8,65.4,30.09,ENE,78,0.0,4.0,83,0.00,,---,0.03,VWS V14.01,2013-05-28 21:58:00,
2013-05-28 18:00:00,70.8,65.4,30.08,ENE,78,0.0,4.0,83,0.00,,---,0.03,VWS V14.01,2013-05-28 22:00:00,
2013-05-28 18:02:00,70.8,65.4,30.08,ENE,78,0.0,4.0,83,0.00,,---,0.03,VWS V14.01,2013-05-28 22:02:00,
2013-05-28 18:03:00,70.8,65.4,30.08,ENE,78,0.0,4.0,83,0.00,,---,0.03,VWS V14.01,2013-05-28 22:03:00,
2013-05-28 18:04:00,70.8,65.4,30.08,ENE,78,0.0,4.0,83,0.00,,---,0.03,VWS V14.01,2013-05-28 22:04:00,
2013-05-28 18:05:00,71.0,65.9,30.08,ENE,78,0.0,0.0,84,0.00,,---,0.03,VWS V14.01,2013-05-28 22:05:00,
2013-05-28 18:08:00,70.9,65.5,30.08,ENE,78,0.0,0.0,83,0.00,,---,0.03,VWS V14.01,2013-05-28 22:08:00,
2013-05-28 18:09:00,70.8,65.7,30.08,ENE,78,0.0,0.0,84,0.00,,---,0.03,VWS V14.01,2013-05-28 22:09:00,
2013-05-28 18:11:00,70.6,65.5,30.08,ENE,78,0.0,0.0,84,0.00,,---,0.03,VWS V14.01,2013-05-28 22:11:00,
2013-05-28 18:13:00,70.6,65.5,30.08,ENE,78,0.0,0.0,84,0.00,,---,0.03,VWS V14.01,2013-05-28 22:13:00,
2013-05-28 18:14:00,70.6,65.5,30.08,ENE,78,0.0,0.0,84,0.00,,---,0.03,VWS V14.01,2013-05-28 22:14:00,
2013-05-28 18:16:00,70.3,65.2,30.08,ENE,78,0.0,0.0,84,0.00,,---,0.03,VWS V14.01,2013-05-28 22:16:00,
2013-05-28 18:18:00,70.1,65.1,30.09,ENE,78,0.0,0.0,84,0.00,,---,0.03,VWS V14.01,2013-05-28 22:18:00,
2013-05-28 18:19:00,70.1,65.1,30.08,ENE,78,0.0,0.0,84,0.00,,---,0.03,VWS V14.01,2013-05-28 22:19:00,
2013-05-28 18:21:00,69.9,65.2,30.08,ENE,78,0.0,0.0,85,0.00,,---,0.03,VWS V14.01,2013-05-28 22:21:00,
2013-05-28 18:23:00,69.7,65.0,30.08,ENE,78,0.0,0.0,85,0.00,,---,0.03,VWS V14.01,2013-05-28 22:23:00,
2013-05-28 18:24:00,69.7,65.3,30.08,ENE,78,0.0,0.0,86,0.00,,---,0.03,VWS V14.01,2013-05-28 22:24:00,
2013-05-28 18:26:00,69.7,65.3,30.08,ENE,78,0.0,0.0,86,0.00,,---,0.03,VWS V14.01,2013-05-28 22:26:00,
2013-05-28 18:27:00,69.6,65.2,30.08,ENE,78,0.0,0.0,86,0.00,,---,0.03,VWS V14.01,2013-05-28 22:27:00,
2013-05-28 18:29:00,69.5,65.1,30.08,ENE,78,0.0,0.0,86,0.00,,---,0.03,VWS V14.01,2013-05-28 22:29:00,
2013-05-28 18:31:00,69.4,65.4,30.08,ENE,78,0.0,0.0,87,0.00,,---,0.03,VWS V14.01,2013-05-28 22:31:00,
2013-05-28 18:32:00,69.3,65.3,30.08,ENE,78,0.0,0.0,87,0.00,,---,0.03,VWS V14.01,2013-05-28 22:32:00,
2013-05-28 18:34:00,69.4,65.4,30.08,ENE,78,0.0,0.0,87,0.00,,---,0.03,VWS V14.01,2013-05-28 22:34:00,
2013-05-28 18:36:00,69.4,65.4,30.08,ENE,78,0.0,0.0,87,0.00,,---,0.03,VWS V14.01,2013-05-28 22:36:00,
2013-05-28 18:37:00,69.4,65.4,30.08,ENE,78,0.0,0.0,87,0.00,,---,0.03,VWS V14.01,2013-05-28 22:37:00,
2013-05-28 18:39:00,69.4,65.0,30.09,ENE,78,0.0,0.0,86,0.00,,---,0.03,VWS V14.01,2013-05-28 22:39:00,
2013-05-28 18:40:00,69.4,64.7,30.09,ENE,78,0.0,0.0,85,0.00,,---,0.03,VWS V14.01,2013-05-28 22:40:00,
2013-05-28 18:41:00,69.4,64.7,30.09,ENE,78,0.0,0.0,85,0.00,,---,0.03,VWS V14.01,2013-05-28 22:41:00,
2013-05-28 18:42:00,69.5,65.1,30.09,ENE,78,0.0,0.0,86,0.00,,---,0.03,VWS V14.01,2013-05-28 22:42:00,
2013-05-28 18:43:00,69.5,65.1,30.09,ENE,78,0.0,0.0,86,0.00,,---,0.03,VWS V14.01,2013-05-28 22:43:00,
2013-05-28 18:45:00,69.6,64.6,30.09,ENE,78,0.0,0.0,84,0.00,,---,0.03,VWS V14.01,2013-05-28 22:45:00,
2013-05-28 18:46:00,69.6,64.6,30.09,ENE,78,0.0,0.0,84,0.00,,---,0.03,VWS V14.01,2013-05-28 22:46:00,
2013-05-28 18:47:00,69.6,64.9,30.09,ENE,78,0.0,0.0,85,0.00,,---,0.03,VWS V14.01,2013-05-28 22:47:00,
2013-05-28 18:48:00,69.6,64.9,30.09,ENE,78,0.0,0.0,85,0.00,,---,0.03,VWS V14.01,2013-05-28 22:48:00,
2013-05-28 18:50:00,69.7,65.0,30.08,ENE,78,0.0,0.0,85,0.00,,---,0.03,VWS V14.01,2013-05-28 22:50:00,
2013-05-28 18:51:00,69.6,64.9,30.08,ENE,78,0.0,0.0,85,0.00,,---,0.03,VWS V14.01,2013-05-28 22:51:00,
2013-05-28 18:52:00,69.6,65.2,30.08,ENE,78,0.0,0.0,86,0.00,,---,0.03,VWS V14.01,2013-05-28 22:52:00,
2013-05-28 18:53:00,69.6,65.2,30.08,ENE,78,0.0,0.0,86,0.00,,---,0.03,VWS V14.01,2013-05-28 22:53:00,
2013-05-28 18:55:00,69.3,64.9,30.08,ENE,78,0.0,0.0,86,0.00,,---,0.03,VWS V14.01,2013-05-28 22:55:00,
2013-05-28 18:56:00,69.2,64.8,30.08,ENE,78,0.0,0.0,86,0.00,,---,0.03,VWS V14.01,2013-05-28 22:56:00,
2013-05-28 18:57:00,69.0,64.6,30.08,ENE,78,0.0,0.0,86,0.00,,---,0.03,VWS V14.01,2013-05-28 22:57:00,
2013-05-28 18:58:00,68.9,64.6,30.08,ENE,78,0.0,0.0,86,0.00,,---,0.03,VWS V14.01,2013-05-28 22:58:00,
2013-05-28 19:01:00,68.8,64.8,30.08,ENE,78,0.0,0.0,87,0.00,,---,0.03,VWS V14.01,2013-05-28 23:01:00,
2013-05-28 19:02:00,68.7,64.7,30.08,ENE,78,0.0,0.0,87,0.00,,---,0.03,VWS V14.01,2013-05-28 23:02:00,
2013-05-28 19:04:00,68.6,64.9,30.08,ENE,78,0.0,0.0,88,0.00,,---,0.03,VWS V14.01,2013-05-28 23:04:00,
2013-05-28 19:06:00,68.5,64.8,30.08,ENE,78,0.0,0.0,88,0.00,,---,0.03,VWS V14.01,2013-05-28 23:06:00,
2013-05-28 19:07:00,68.5,64.8,30.08,ENE,78,0.0,0.0,88,0.00,,---,0.03,VWS V14.01,2013-05-28 23:07:00,
2013-05-28 19:08:00,68.5,65.1,30.08,ENE,78,0.0,0.0,89,0.00,,---,0.03,VWS V14.01,2013-05-28 23:08:00,
2013-05-28 19:09:00,68.5,65.1,30.08,ENE,78,0.0,0.0,89,0.00,,---,0.03,VWS V14.01,2013-05-28 23:09:00,
2013-05-28 19:11:00,68.5,65.1,30.08,ENE,78,0.0,0.0,89,0.00,,---,0.03,VWS V14.01,2013-05-28 23:11:00,
2013-05-28 19:12:00,68.5,65.1,30.08,ENE,78,0.0,0.0,89,0.00,,---,0.03,VWS V14.01,2013-05-28 23:12:00,
2013-05-28 19:13:00,68.4,65.0,30.08,ENE,78,0.0,0.0,89,0.00,,---,0.03,VWS V14.01,2013-05-28 23:13:00,
2013-05-28 19:14:00,68.5,65.1,30.08,ENE,78,0.0,0.0,89,0.00,,---,0.03,VWS V14.01,2013-05-28 23:14:00,
2013-05-28 19:16:00,68.4,65.4,30.07,ENE,78,0.0,0.0,90,0.00,,---,0.03,VWS V14.01,2013-05-28 23:16:00,
2013-05-28 19:17:00,68.3,64.9,30.08,ENE,78,0.0,0.0,89,0.00,,---,0.03,VWS V14.01,2013-05-28 23:17:00,
2013-05-28 19:19:00,68.3,64.9,30.08,ENE,78,0.0,0.0,89,0.00,,---,0.03,VWS V14.01,2013-05-28 23:19:00,
2013-05-28 19:22:00,68.4,65.4,30.08,ENE,78,0.0,0.0,90,0.00,,---,0.03,VWS V14.01,2013-05-28 23:22:00,
2013-05-28 19:23:00,68.4,65.4,30.08,ENE,78,0.0,0.0,90,0.00,,---,0.03,VWS V14.01,2013-05-28 23:23:00,
2013-05-28 19:24:00,68.3,64.9,30.08,ENE,78,0.0,0.0,89,0.00,,---,0.03,VWS V14.01,2013-05-28 23:24:00,
2013-05-28 19:25:00,68.3,64.9,30.08,ENE,78,0.0,0.0,89,0.00,,---,0.03,VWS V14.01,2013-05-28 23:25:00,
2013-05-28 19:27:00,68.2,64.8,30.08,ENE,78,0.0,0.0,89,0.00,,---,0.03,VWS V14.01,2013-05-28 23:27:00,
2013-05-28 19:28:00,68.2,64.8,30.08,ENE,78,0.0,0.0,89,0.00,,---,0.03,VWS V14.01,2013-05-28 23:28:00,
2013-05-28 19:30:00,68.2,64.8,30.08,ENE,78,0.0,0.0,89,0.00,,---,0.03,VWS V14.01,2013-05-28 23:30:00,
2013-05-28 19:31:00,68.2,64.5,30.08,ENE,78,0.0,0.0,88,0.00,,---,0.03,VWS V14.01,2013-05-28 23:31:00,
2013-05-28 19:33:00,68.2,64.5,30.07,ENE,78,0.0,0.0,88,0.00,,---,0.03,VWS V14.01,2013-05-28 23:33:00,
2013-05-28 19:35:00,68.2,64.8,30.07,ENE,78,0.0,0.0,89,0.00,,---,0.03,VWS V14.01,2013-05-28 23:35:00,
2013-05-28 19:36:00,68.2,64.5,30.07,ENE,78,0.0,0.0,88,0.00,,---,0.03,VWS V14.01,2013-05-28 23:36:00,
2013-05-28 19:37:00,68.3,64.9,30.07,ENE,78,0.0,0.0,89,0.00,,---,0.03,VWS V14.01,2013-05-28 23:37:00,
2013-05-28 19:38:00,68.3,64.9,30.07,ENE,78,0.0,0.0,89,0.00,,---,0.03,VWS V14.01,2013-05-28 23:38:00,
2013-05-28 19:40:00,68.2,64.8,30.07,ENE,78,0.0,0.0,89,0.00,,---,0.03,VWS V14.01,2013-05-28 23:40:00,
2013-05-28 19:41:00,68.2,64.8,30.07,ENE,78,0.0,0.0,89,0.00,,---,0.03,VWS V14.01,2013-05-28 23:41:00,
2013-05-28 19:43:00,68.1,64.7,30.07,ENE,78,0.0,0.0,89,0.00,,---,0.03,VWS V14.01,2013-05-28 23:43:00,
2013-05-28 19:44:00,68.1,64.7,30.07,ENE,78,0.0,0.0,89,0.00,,---,0.03,VWS V14.01,2013-05-28 23:44:00,
2013-05-28 19:45:00,68.1,64.7,30.07,ENE,78,0.0,0.0,89,0.00,,---,0.03,VWS V14.01,2013-05-28 23:45:00,
2013-05-28 19:46:00,68.1,64.7,30.07,ENE,78,0.0,0.0,89,0.00,,---,0.03,VWS V14.01,2013-05-28 23:46:00,
2013-05-28 19:48:00,68.2,64.8,30.07,ENE,78,0.0,0.0,89,0.00,,---,0.03,VWS V14.01,2013-05-28 23:48:00,
2013-05-28 19:49:00,68.2,64.8,30.07,ENE,78,0.0,0.0,89,0.00,,---,0.03,VWS V14.01,2013-05-28 23:49:00,
2013-05-28 19:51:00,68.3,64.9,30.07,ENE,78,0.0,0.0,89,0.00,,---,0.03,VWS V14.01,2013-05-28 23:51:00,
2013-05-28 19:54:00,68.2,64.8,30.07,ENE,78,0.0,0.0,89,0.00,,---,0.03,VWS V14.01,2013-05-28 23:54:00,
2013-05-28 19:56:00,68.2,65.2,30.07,ENE,78,0.0,0.0,90,0.00,,---,0.03,VWS V14.01,2013-05-28 23:56:00,
2013-05-28 19:57:00,68.1,64.7,30.07,ENE,78,0.0,0.0,89,0.00,,---,0.03,VWS V14.01,2013-05-28 23:57:00,
2013-05-28 19:59:00,68.0,65.0,30.07,ENE,78,0.0,0.0,90,0.00,,---,0.03,VWS V14.01,2013-05-28 23:59:00,
2013-05-28 20:01:00,67.9,64.9,30.07,ENE,78,0.0,0.0,90,0.00,,---,0.03,VWS V14.01,2013-05-29 00:01:00,
2013-05-28 20:02:00,67.9,64.9,30.07,ENE,78,0.0,0.0,90,0.00,,---,0.03,VWS V14.01,2013-05-29 00:02:00,
2013-05-28 20:04:00,67.8,64.8,30.07,ENE,78,0.0,0.0,90,0.00,,---,0.03,VWS V14.01,2013-05-29 00:04:00,
2013-05-28 20:05:00,67.7,64.7,30.07,ENE,78,0.0,0.0,90,0.00,,---,0.03,VWS V14.01,2013-05-29 00:05:00,
2013-05-28 20:06:00,67.7,64.7,30.07,ENE,78,0.0,0.0,90,0.00,,---,0.03,VWS V14.01,2013-05-29 00:06:00,
2013-05-28 20:07:00,67.6,64.6,30.07,ENE,78,0.0,0.0,90,0.00,,---,0.03,VWS V14.01,2013-05-29 00:07:00,
2013-05-28 20:09:00,67.4,64.4,30.07,ENE,78,0.0,0.0,90,0.00,,---,0.03,VWS V14.01,2013-05-29 00:09:00,
2013-05-28 20:10:00,67.4,64.4,30.07,ENE,78,0.0,0.0,90,0.00,,---,0.03,VWS V14.01,2013-05-29 00:10:00,
2013-05-28 20:11:00,67.3,64.6,30.07,ENE,78,0.0,0.0,91,0.00,,---,0.03,VWS V14.01,2013-05-29 00:11:00,
2013-05-28 20:12:00,67.2,64.5,30.07,ENE,78,0.0,0.0,91,0.00,,---,0.03,VWS V14.01,2013-05-29 00:12:00,
2013-05-28 20:15:00,67.1,64.4,30.07,ENE,78,0.0,0.0,91,0.00,,---,0.03,VWS V14.01,2013-05-29 00:15:00,
2013-05-28 20:17:00,66.9,64.5,30.07,ENE,78,0.0,0.0,92,0.00,,---,0.03,VWS V14.01,2013-05-29 00:17:00,
2013-05-28 20:18:00,66.9,64.5,30.07,ENE,78,0.0,0.0,92,0.00,,---,0.03,VWS V14.01,2013-05-29 00:18:00,
2013-05-28 20:20:00,66.7,64.3,30.07,ENE,78,0.0,0.0,92,0.00,,---,0.03,VWS V14.01,2013-05-29 00:20:00,
2013-05-28 20:21:00,66.7,64.3,30.07,ENE,78,0.0,0.0,92,0.00,,---,0.03,VWS V14.01,2013-05-29 00:21:00,
2013-05-28 20:22:00,66.6,64.2,30.07,ENE,78,0.0,0.0,92,0.00,,---,0.03,VWS V14.01,2013-05-29 00:22:00,
2013-05-28 20:23:00,66.6,64.5,30.07,ENE,78,0.0,0.0,93,0.00,,---,0.03,VWS V14.01,2013-05-29 00:23:00,
2013-05-28 20:26:00,66.4,64.3,30.07,ENE,78,0.0,0.0,93,0.00,,---,0.03,VWS V14.01,2013-05-29 00:26:00,
2013-05-28 20:28:00,66.3,64.2,30.07,ENE,78,0.0,0.0,93,0.00,,---,0.03,VWS V14.01,2013-05-29 00:28:00,
2013-05-28 20:31:00,66.1,64.0,30.07,ENE,78,0.0,0.0,93,0.00,,---,0.03,VWS V14.01,2013-05-29 00:31:00,
2013-05-28 20:32:00,66.0,63.9,30.08,ENE,78,0.0,0.0,93,0.00,,---,0.03,VWS V14.01,2013-05-29 00:32:00,
2013-05-28 20:33:00,65.9,63.8,30.07,ENE,78,0.0,0.0,93,0.00,,---,0.03,VWS V14.01,2013-05-29 00:33:00,
2013-05-28 20:36:00,65.7,63.9,30.07,ENE,78,0.0,0.0,94,0.00,,---,0.03,VWS V14.01,2013-05-29 00:36:00,
2013-05-28 20:37:00,65.7,63.9,30.07,ENE,78,0.0,0.0,94,0.00,,---,0.03,VWS V14.01,2013-05-29 00:37:00,
2013-05-28 20:38:00,65.6,63.8,30.07,ENE,78,0.0,0.0,94,0.00,,---,0.03,VWS V14.01,2013-05-29 00:38:00,
2013-05-28 20:41:00,65.4,63.6,30.07,ENE,78,0.0,0.0,94,0.00,,---,0.03,VWS V14.01,2013-05-29 00:41:00,
2013-05-28 20:42:00,65.4,63.6,30.08,ENE,78,0.0,0.0,94,0.00,,---,0.03,VWS V14.01,2013-05-29 00:42:00,
2013-05-28 20:43:00,65.3,63.5,30.08,ENE,78,0.0,0.0,94,0.00,,---,0.03,VWS V14.01,2013-05-29 00:43:00,
2013-05-28 20:44:00,65.3,63.5,30.08,ENE,78,0.0,1.0,94,0.00,,---,0.03,VWS V14.01,2013-05-29 00:44:00,
2013-05-28 20:45:00,65.3,63.5,30.07,ENE,78,0.0,1.0,94,0.00,,---,0.03,VWS V14.01,2013-05-29 00:45:00,
2013-05-28 20:46:00,65.2,63.4,30.07,ENE,78,0.0,1.0,94,0.00,,---,0.03,VWS V14.01,2013-05-29 00:46:00,
2013-05-28 20:47:00,65.2,63.4,30.07,ENE,78,0.0,1.0,94,0.00,,---,0.03,VWS V14.01,2013-05-29 00:47:00,
2013-05-28 20:48:00,65.1,63.3,30.07,ENE,78,0.0,1.0,94,0.00,,---,0.03,VWS V14.01,2013-05-29 00:48:00,
2013-05-28 20:49:00,65.1,63.3,30.07,ENE,78,0.0,1.0,94,0.00,,---,0.03,VWS V14.01,2013-05-29 00:49:00,
2013-05-28 20:50:00,65.0,63.5,30.07,ENE,78,0.0,1.0,95,0.00,,---,0.03,VWS V14.01,2013-05-29 00:50:00,
2013-05-28 20:53:00,64.8,63.3,30.07,ENE,78,0.0,1.0,95,0.00,,---,0.03,VWS V14.01,2013-05-29 00:53:00,
2013-05-28 20:54:00,64.8,63.3,30.07,ENE,78,0.0,1.0,95,0.00,,---,0.03,VWS V14.01,2013-05-29 00:54:00,
2013-05-28 20:55:00,64.7,63.2,30.08,ENE,78,0.0,1.0,95,0.00,,---,0.03,VWS V14.01,2013-05-29 00:55:00,
2013-05-28 20:58:00,64.6,63.1,30.07,ENE,78,0.0,1.0,95,0.00,,---,0.03,VWS V14.01,2013-05-29 00:58:00,
2013-05-28 20:59:00,64.6,63.1,30.08,ENE,78,0.0,1.0,95,0.00,,---,0.03,VWS V14.01,2013-05-29 00:59:00,
2013-05-28 21:01:00,64.5,63.3,30.07,ENE,78,0.0,1.0,96,0.00,,---,0.03,VWS V14.01,2013-05-29 01:01:00,
2013-05-28 21:03:00,64.5,63.3,30.07,ENE,78,0.0,1.0,96,0.00,,---,0.03,VWS V14.01,2013-05-29 01:03:00,
2013-05-28 21:04:00,64.5,63.3,30.07,ENE,78,0.0,1.0,96,0.00,,---,0.03,VWS V14.01,2013-05-29 01:04:00,
2013-05-28 21:07:00,64.4,63.2,30.08,ENE,78,0.0,0.0,96,0.00,,---,0.03,VWS V14.01,2013-05-29 01:07:00,
2013-05-28 21:09:00,64.4,63.2,30.08,ENE,78,0.0,0.0,96,0.00,,---,0.03,VWS V14.01,2013-05-29 01:09:00,
2013-05-28 21:10:00,64.3,63.1,30.07,ENE,78,0.0,0.0,96,0.00,,---,0.03,VWS V14.01,2013-05-29 01:10:00,
2013-05-28 21:12:00,64.3,63.1,30.07,ENE,78,0.0,0.0,96,0.00,,---,0.03,VWS V14.01,2013-05-29 01:12:00,
2013-05-28 21:14:00,64.3,63.1,30.07,ENE,78,0.0,0.0,96,0.00,,---,0.03,VWS V14.01,2013-05-29 01:14:00,
2013-05-28 21:15:00,64.2,63.0,30.07,ENE,78,0.0,0.0,96,0.00,,---,0.03,VWS V14.01,2013-05-29 01:15:00,
2013-05-28 21:17:00,64.1,62.9,30.07,ENE,78,0.0,0.0,96,0.00,,---,0.03,VWS V14.01,2013-05-29 01:17:00,
2013-05-28 21:19:00,64.1,62.9,30.07,ENE,78,0.0,0.0,96,0.00,,---,0.03,VWS V14.01,2013-05-29 01:19:00,
2013-05-28 21:20:00,64.0,62.8,30.07,ENE,78,0.0,0.0,96,0.00,,---,0.03,VWS V14.01,2013-05-29 01:20:00,
2013-05-28 21:21:00,64.0,62.8,30.07,ENE,78,0.0,0.0,96,0.00,,---,0.03,VWS V14.01,2013-05-29 01:21:00,
2013-05-28 21:22:00,64.0,62.8,30.07,ENE,78,0.0,0.0,96,0.00,,---,0.03,VWS V14.01,2013-05-29 01:22:00,
2013-05-28 21:24:00,63.9,63.0,30.07,ENE,78,0.0,0.0,97,0.00,,---,0.03,VWS V14.01,2013-05-29 01:24:00,
2013-05-28 21:25:00,63.9,63.0,30.08,ENE,78,0.0,0.0,97,0.00,,---,0.03,VWS V14.01,2013-05-29 01:25:00,
2013-05-28 21:26:00,63.9,63.0,30.08,ENE,78,0.0,0.0,97,0.00,,---,0.03,VWS V14.01,2013-05-29 01:26:00,
2013-05-28 21:28:00,63.9,63.0,30.07,ENE,78,0.0,0.0,97,0.00,,---,0.03,VWS V14.01,2013-05-29 01:28:00,
2013-05-28 21:30:00,63.9,63.0,30.07,ENE,78,0.0,0.0,97,0.00,,---,0.03,VWS V14.01,2013-05-29 01:30:00,
2013-05-28 21:31:00,63.8,62.9,30.08,ENE,78,0.0,0.0,97,0.00,,---,0.03,VWS V14.01,2013-05-29 01:31:00,
2013-05-28 21:32:00,63.8,62.9,30.08,ENE,78,0.0,0.0,97,0.00,,---,0.03,VWS V14.01,2013-05-29 01:32:00,
2013-05-28 21:33:00,63.8,62.9,30.08,ENE,78,0.0,0.0,97,0.00,,---,0.03,VWS V14.01,2013-05-29 01:33:00,
2013-05-28 21:35:00,63.8,62.9,30.08,ENE,78,0.0,0.0,97,0.00,,---,0.03,VWS V14.01,2013-05-29 01:35:00,
2013-05-28 21:36:00,63.8,62.9,30.08,ENE,78,0.0,0.0,97,0.00,,---,0.03,VWS V14.01,2013-05-29 01:36:00,
2013-05-28 21:38:00,63.8,62.9,30.08,ENE,78,0.0,0.0,97,0.00,,---,0.03,VWS V14.01,2013-05-29 01:38:00,
2013-05-28 21:41:00,63.7,62.8,30.08,ENE,78,0.0,0.0,97,0.00,,---,0.03,VWS V14.01,2013-05-29 01:41:00,
2013-05-28 21:43:00,63.6,62.7,30.08,ENE,78,0.0,0.0,97,0.00,,---,0.03,VWS V14.01,2013-05-29 01:43:00,
2013-05-28 21:44:00,63.6,62.7,30.08,ENE,78,0.0,0.0,97,0.00,,---,0.03,VWS V14.01,2013-05-29 01:44:00,
2013-05-28 21:45:00,63.6,62.7,30.08,ENE,78,0.0,0.0,97,0.00,,---,0.03,VWS V14.01,2013-05-29 01:45:00,
2013-05-28 21:46:00,63.6,62.7,30.08,ENE,78,0.0,0.0,97,0.00,,---,0.03,VWS V14.01,2013-05-29 01:46:00,
2013-05-28 21:47:00,63.6,62.7,30.08,ENE,78,0.0,0.0,97,0.00,,---,0.03,VWS V14.01,2013-05-29 01:47:00,
2013-05-28 21:49:00,63.6,62.7,30.08,ENE,78,0.0,0.0,97,0.00,,---,0.03,VWS V14.01,2013-05-29 01:49:00,
2013-05-28 21:50:00,63.7,62.8,30.08,ENE,78,0.0,0.0,97,0.00,,---,0.03,VWS V14.01,2013-05-29 01:50:00,
2013-05-28 21:51:00,63.6,62.7,30.08,ENE,78,0.0,0.0,97,0.00,,---,0.03,VWS V14.01,2013-05-29 01:51:00,
2013-05-28 21:53:00,63.7,62.8,30.08,ENE,78,0.0,0.0,97,0.00,,---,0.03,VWS V14.01,2013-05-29 01:53:00,
2013-05-28 21:54:00,63.7,63.1,30.08,ENE,78,0.0,0.0,98,0.00,,---,0.03,VWS V14.01,2013-05-29 01:54:00,
2013-05-28 21:55:00,63.7,63.1,30.08,ENE,78,0.0,0.0,98,0.00,,---,0.03,VWS V14.01,2013-05-29 01:55:00,
2013-05-28 21:56:00,63.8,63.2,30.08,ENE,78,0.0,0.0,98,0.00,,---,0.03,VWS V14.01,2013-05-29 01:56:00,
2013-05-28 21:59:00,63.8,63.2,30.08,ENE,78,0.0,0.0,98,0.00,,---,0.03,VWS V14.01,2013-05-29 01:59:00,
2013-05-28 22:00:00,63.8,63.2,30.08,ENE,78,0.0,0.0,98,0.00,,---,0.03,VWS V14.01,2013-05-29 02:00:00,
2013-05-28 22:01:00,63.8,63.2,30.08,ENE,78,0.0,0.0,98,0.00,,---,0.03,VWS V14.01,2013-05-29 02:01:00,
2013-05-28 22:02:00,63.8,63.2,30.08,ENE,78,0.0,0.0,98,0.00,,---,0.03,VWS V14.01,2013-05-29 02:02:00,
2013-05-28 22:05:00,63.9,63.3,30.08,ENE,78,0.0,0.0,98,0.00,,---,0.03,VWS V14.01,2013-05-29 02:05:00,
2013-05-28 22:07:00,63.9,63.3,30.09,ENE,78,0.0,0.0,98,0.00,,---,0.03,VWS V14.01,2013-05-29 02:07:00,
2013-05-28 22:10:00,63.9,63.3,30.08,ENE,78,0.0,0.0,98,0.00,,---,0.03,VWS V14.01,2013-05-29 02:10:00,
2013-05-28 22:12:00,63.9,63.3,30.08,ENE,78,0.0,0.0,98,0.00,,---,0.03,VWS V14.01,2013-05-29 02:12:00,
2013-05-28 22:16:00,63.9,63.3,30.08,ENE,78,0.0,0.0,98,0.00,,---,0.03,VWS V14.01,2013-05-29 02:16:00,
2013-05-28 22:18:00,63.9,63.3,30.08,ENE,78,0.0,0.0,98,0.00,,---,0.03,VWS V14.01,2013-05-29 02:18:00,
2013-05-28 22:19:00,63.9,63.3,30.08,ENE,78,0.0,0.0,98,0.00,,---,0.03,VWS V14.01,2013-05-29 02:19:00,
2013-05-28 22:21:00,63.9,63.3,30.08,ENE,78,0.0,0.0,98,0.00,,---,0.03,VWS V14.01,2013-05-29 02:21:00,
2013-05-28 22:22:00,63.9,63.3,30.08,ENE,78,0.0,0.0,98,0.00,,---,0.03,VWS V14.01,2013-05-29 02:22:00,
2013-05-28 22:23:00,63.9,63.3,30.08,ENE,78,0.0,0.0,98,0.00,,---,0.03,VWS V14.01,2013-05-29 02:23:00,
2013-05-28 22:24:00,63.9,63.3,30.08,ENE,78,0.0,0.0,98,0.00,,---,0.03,VWS V14.01,2013-05-29 02:24:00,
2013-05-28 22:26:00,63.8,63.2,30.09,ENE,78,0.0,0.0,98,0.00,,---,0.03,VWS V14.01,2013-05-29 02:26:00,
2013-05-28 22:27:00,63.8,63.2,30.09,ENE,78,0.0,0.0,98,0.00,,---,0.03,VWS V14.01,2013-05-29 02:27:00,
2013-05-28 22:28:00,63.8,63.2,30.09,ENE,78,0.0,0.0,98,0.00,,---,0.03,VWS V14.01,2013-05-29 02:28:00,
2013-05-28 22:29:00,63.8,63.2,30.09,ENE,78,0.0,0.0,98,0.00,,---,0.03,VWS V14.01,2013-05-29 02:29:00,
2013-05-28 22:31:00,63.8,63.5,30.08,ENE,78,0.0,0.0,99,0.00,,---,0.03,VWS V14.01,2013-05-29 02:31:00,
2013-05-28 22:32:00,63.7,63.4,30.08,ENE,78,0.0,0.0,99,0.00,,---,0.03,VWS V14.01,2013-05-29 02:32:00,
2013-05-28 22:34:00,63.7,63.4,30.08,ENE,78,0.0,0.0,99,0.00,,---,0.03,VWS V14.01,2013-05-29 02:34:00,
2013-05-28 22:36:00,63.7,63.4,30.09,ENE,78,0.0,0.0,99,0.00,,---,0.03,VWS V14.01,2013-05-29 02:36:00,
2013-05-28 22:37:00,63.7,63.4,30.09,ENE,78,0.0,0.0,99,0.00,,---,0.03,VWS V14.01,2013-05-29 02:37:00,
2013-05-28 22:39:00,63.6,63.3,30.09,ENE,78,0.0,0.0,99,0.00,,---,0.03,VWS V14.01,2013-05-29 02:39:00,
2013-05-28 22:40:00,63.6,63.3,30.09,ENE,78,0.0,0.0,99,0.00,,---,0.03,VWS V14.01,2013-05-29 02:40:00,
2013-05-28 22:42:00,63.5,63.2,30.09,ENE,78,0.0,0.0,99,0.00,,---,0.03,VWS V14.01,2013-05-29 02:42:00,
2013-05-28 22:43:00,63.4,63.1,30.09,ENE,78,0.0,0.0,99,0.00,,---,0.03,VWS V14.01,2013-05-29 02:43:00,
2013-05-28 22:45:00,63.5,63.2,30.09,ENE,78,0.0,0.0,99,0.00,,---,0.03,VWS V14.01,2013-05-29 02:45:00,
2013-05-28 22:47:00,63.4,63.1,30.09,ENE,78,0.0,0.0,99,0.00,,---,0.03,VWS V14.01,2013-05-29 02:47:00,
2013-05-28 22:48:00,63.4,63.1,30.09,ENE,78,0.0,0.0,99,0.00,,---,0.03,VWS V14.01,2013-05-29 02:48:00,
2013-05-28 22:50:00,63.4,63.1,30.09,ENE,78,0.0,0.0,99,0.00,,---,0.03,VWS V14.01,2013-05-29 02:50:00,
2013-05-28 22:51:00,63.3,63.0,30.09,ENE,78,0.0,0.0,99,0.00,,---,0.03,VWS V14.01,2013-05-29 02:51:00,
2013-05-28 22:52:00,63.3,63.0,30.09,ENE,78,0.0,0.0,99,0.00,,---,0.03,VWS V14.01,2013-05-29 02:52:00,
2013-05-28 22:53:00,63.3,63.0,30.09,ENE,78,0.0,0.0,99,0.00,,---,0.03,VWS V14.01,2013-05-29 02:53:00,
2013-05-28 22:56:00,63.2,62.9,30.09,ENE,78,0.0,1.0,99,0.00,,---,0.03,VWS V14.01,2013-05-29 02:56:00,
2013-05-28 22:57:00,63.2,62.9,30.09,ENE,78,0.0,1.0,99,0.00,,---,0.03,VWS V14.01,2013-05-29 02:57:00,
2013-05-28 22:58:00,63.2,62.9,30.09,ENE,78,0.0,1.0,99,0.00,,---,0.03,VWS V14.01,2013-05-29 02:58:00,
2013-05-28 22:59:00,63.2,62.9,30.09,ENE,78,0.0,1.0,99,0.00,,---,0.03,VWS V14.01,2013-05-29 02:59:00,
2013-05-28 23:00:00,63.1,62.8,30.09,ENE,78,0.0,1.0,99,0.00,,---,0.03,VWS V14.01,2013-05-29 03:00:00,
2013-05-28 23:01:00,63.1,62.8,30.09,ENE,78,0.0,1.0,99,0.00,,---,0.03,VWS V14.01,2013-05-29 03:01:00,
2013-05-28 23:03:00,63.2,62.9,30.09,ENE,78,0.0,1.0,99,0.00,,---,0.03,VWS V14.01,2013-05-29 03:03:00,
2013-05-28 23:04:00,63.2,62.9,30.09,ENE,78,0.0,1.0,99,0.00,,---,0.03,VWS V14.01,2013-05-29 03:04:00,
2013-05-28 23:05:00,63.1,63.1,30.09,ENE,78,0.0,0.0,100,0.00,,---,0.03,VWS V14.01,2013-05-29 03:05:00,
2013-05-28 23:06:00,63.1,63.1,30.09,ENE,78,0.0,0.0,100,0.00,,---,0.03,VWS V14.01,2013-05-29 03:06:00,
2013-05-28 23:08:00,63.1,63.1,30.09,ENE,78,0.0,0.0,100,0.00,,---,0.03,VWS V14.01,2013-05-29 03:08:00,
2013-05-28 23:09:00,63.1,63.1,30.09,ENE,78,0.0,0.0,100,0.00,,---,0.03,VWS V14.01,2013-05-29 03:09:00,
2013-05-28 23:10:00,63.1,63.1,30.08,ENE,78,0.0,0.0,100,0.00,,---,0.03,VWS V14.01,2013-05-29 03:10:00,
2013-05-28 23:12:00,63.1,63.1,30.08,ENE,78,0.0,0.0,100,0.00,,---,0.03,VWS V14.01,2013-05-29 03:12:00,
2013-05-28 23:13:00,63.1,63.1,30.08,ENE,78,0.0,0.0,100,0.00,,---,0.03,VWS V14.01,2013-05-29 03:13:00,
2013-05-28 23:14:00,63.1,63.1,30.08,ENE,78,0.0,0.0,100,0.00,,---,0.03,VWS V14.01,2013-05-29 03:14:00,
2013-05-28 23:16:00,63.1,63.1,30.08,ENE,78,0.0,0.0,100,0.00,,---,0.03,VWS V14.01,2013-05-29 03:16:00,
2013-05-28 23:17:00,63.0,63.0,30.08,ENE,78,0.0,0.0,100,0.00,,---,0.03,VWS V14.01,2013-05-29 03:17:00,
2013-05-28 23:18:00,63.0,63.0,30.08,ENE,78,0.0,0.0,100,0.00,,---,0.03,VWS V14.01,2013-05-29 03:18:00,
2013-05-28 23:19:00,63.0,63.0,30.08,ENE,78,0.0,0.0,100,0.00,,---,0.03,VWS V14.01,2013-05-29 03:19:00,
2013-05-28 23:20:00,63.0,63.0,30.08,ENE,78,0.0,0.0,100,0.00,,---,0.03,VWS V14.01,2013-05-29 03:20:00,
2013-05-28 23:21:00,63.0,63.0,30.08,ENE,78,0.0,0.0,100,0.00,,---,0.03,VWS V14.01,2013-05-29 03:21:00,
2013-05-28 23:23:00,63.0,63.0,30.08,ENE,78,0.0,0.0,100,0.00,,---,0.03,VWS V14.01,2013-05-29 03:23:00,
2013-05-28 23:25:00,63.0,63.0,30.08,ENE,78,0.0,0.0,100,0.00,,---,0.03,VWS V14.01,2013-05-29 03:25:00,
2013-05-28 23:26:00,63.1,63.1,30.08,ENE,78,0.0,0.0,100,0.00,,---,0.03,VWS V14.01,2013-05-29 03:26:00,
2013-05-28 23:28:00,63.1,63.1,30.08,ENE,78,0.0,0.0,100,0.00,,---,0.03,VWS V14.01,2013-05-29 03:28:00,
2013-05-28 23:29:00,63.1,63.1,30.08,ENE,78,0.0,0.0,100,0.00,,---,0.03,VWS V14.01,2013-05-29 03:29:00,
2013-05-28 23:30:00,63.1,63.1,30.08,ENE,78,0.0,0.0,100,0.00,,---,0.03,VWS V14.01,2013-05-29 03:30:00,
2013-05-28 23:31:00,63.1,63.1,30.08,ENE,78,0.0,0.0,100,0.00,,---,0.03,VWS V14.01,2013-05-29 03:31:00,
2013-05-28 23:34:00,63.1,63.1,30.08,ENE,78,0.0,0.0,100,0.00,,---,0.03,VWS V14.01,2013-05-29 03:34:00,
2013-05-28 23:35:00,63.1,63.1,30.08,ENE,78,0.0,0.0,100,0.00,,---,0.03,VWS V14.01,2013-05-29 03:35:00,
2013-05-28 23:36:00,63.0,63.0,30.08,ENE,78,0.0,2.0,100,0.00,,---,0.03,VWS V14.01,2013-05-29 03:36:00,
2013-05-28 23:37:00,63.0,63.0,30.08,ENE,78,0.0,2.0,100,0.00,,---,0.03,VWS V14.01,2013-05-29 03:37:00,
2013-05-28 23:39:00,63.0,63.0,30.08,ENE,78,0.0,2.0,100,0.00,,---,0.03,VWS V14.01,2013-05-29 03:39:00,
2013-05-28 23:40:00,63.0,63.0,30.08,ENE,78,0.0,2.0,100,0.00,,---,0.03,VWS V14.01,2013-05-29 03:40:00,
2013-05-28 23:41:00,63.1,63.1,30.08,ENE,78,0.0,2.0,100,0.00,,---,0.03,VWS V14.01,2013-05-29 03:41:00,
2013-05-28 23:42:00,63.1,63.1,30.08,ENE,78,0.0,2.0,100,0.00,,---,0.03,VWS V14.01,2013-05-29 03:42:00,
2013-05-28 23:44:00,63.1,63.1,30.08,ENE,78,0.0,2.0,100,0.00,,---,0.03,VWS V14.01,2013-05-29 03:44:00,
2013-05-28 23:45:00,63.1,63.1,30.08,ENE,78,0.0,2.0,100,0.00,,---,0.03,VWS V14.01,2013-05-29 03:45:00,
2013-05-28 23:47:00,63.0,63.0,30.08,ENE,78,0.0,2.0,100,0.00,,---,0.03,VWS V14.01,2013-05-29 03:47:00,
2013-05-28 23:48:00,63.0,63.0,30.08,ENE,78,0.0,2.0,100,0.00,,---,0.03,VWS V14.01,2013-05-29 03:48:00,
2013-05-28 23:49:00,62.9,62.9,30.08,ENE,78,0.0,2.0,100,0.00,,---,0.03,VWS V14.01,2013-05-29 03:49:00,
2013-05-28 23:51:00,62.9,62.9,30.08,ENE,78,0.0,2.0,100,0.00,,---,0.03,VWS V14.01,2013-05-29 03:51:00,
2013-05-28 23:52:00,62.9,62.9,30.08,ENE,78,0.0,2.0,100,0.00,,---,0.03,VWS V14.01,2013-05-29 03:52:00,
2013-05-28 23:53:00,62.8,62.8,30.08,ENE,78,0.0,2.0,100,0.00,,---,0.03,VWS V14.01,2013-05-29 03:53:00,
2013-05-28 23:55:00,62.7,62.7,30.08,ENE,78,0.0,2.0,100,0.00,,---,0.03,VWS V14.01,2013-05-29 03:55:00,
2013-05-28 23:56:00,62.6,62.6,30.08,ENE,78,0.0,2.0,100,0.00,,---,0.03,VWS V14.01,2013-05-29 03:56:00,
2013-05-28 23:57:00,62.6,62.6,30.08,ENE,78,0.0,2.0,100,0.00,,---,0.03,VWS V14.01,2013-05-29 03:57:00,
2013-05-28 23:58:00,62.6,62.6,30.08,ENE,78,0.0,2.0,100,0.00,,---,0.03,VWS V14.01,2013-05-29 03:58:00,